Time,TemperatureF,DewpointF,PressureIn,WindDirection,WindDirectionDegrees,WindSpeedMPH,WindSpeedGustMPH,Humidity,HourlyPrecipIn,Conditions,Clouds,dailyrainin,SoftwareType,DateUTC
2013-06-26 10:51:00,86.5,54.0,29.77,NNW,340,3.6,3.6,33,0.00,,,0.00,VWS V14.01,2013-06-26 14:51:00,
2013-06-26 10:52:00,86.5,54.0,29.77,NNW,340,3.6,3.6,33,0.00,,,0.00,VWS V14.01,2013-06-26 14:52:00,
2013-06-26 10:53:00,86.6,54.1,29.77,SW,224,0.0,4.9,33,0.00,,,0.00,VWS V14.01,2013-06-26 14:53:00,
2013-06-26 10:54:00,86.6,54.1,29.77,SW,219,0.0,0.0,33,0.00,,,0.00,VWS V14.01,2013-06-26 14:54:00,
2013-06-26 10:55:00,86.6,54.1,29.77,WNW,285,0.0,0.0,33,0.00,,,0.00,VWS V14.01,2013-06-26 14:55:00,
2013-06-26 10:56:00,86.8,55.1,29.77,NNW,337,0.0,0.0,34,0.00,,,0.00,VWS V14.01,2013-06-26 14:56:00,
2013-06-26 10:57:00,87.0,54.5,29.77,NNW,338,3.6,3.6,33,0.00,,,0.00,VWS V14.01,2013-06-26 14:57:00,
2013-06-26 10:58:00,87.0,54.5,29.77,NNW,335,4.0,4.0,33,0.00,,,0.00,VWS V14.01,2013-06-26 14:58:00,
2013-06-26 10:59:00,87.0,54.5,29.77,WNW,297,3.6,4.9,33,0.00,,,0.00,VWS V14.01,2013-06-26 14:59:00,
2013-06-26 11:00:00,87.0,54.5,29.77,NNW,338,4.9,4.9,33,0.00,,,0.00,VWS V14.01,2013-06-26 15:00:00,
2013-06-26 11:01:00,87.0,54.5,29.77,North,353,3.6,5.4,33,0.00,,,0.00,VWS V14.01,2013-06-26 15:01:00,
2013-06-26 11:02:00,86.8,54.3,29.77,NNW,338,0.0,4.0,33,0.00,,,0.00,VWS V14.01,2013-06-26 15:02:00,
2013-06-26 11:03:00,86.8,54.3,29.77,WNW,303,0.0,0.0,33,0.00,,,0.00,VWS V14.01,2013-06-26 15:03:00,
2013-06-26 11:04:00,86.6,54.1,29.77,WNW,284,5.4,5.4,33,0.00,,,0.00,VWS V14.01,2013-06-26 15:04:00,
2013-06-26 11:05:00,86.6,54.1,29.77,NNW,335,5.8,5.8,33,0.00,,,0.00,VWS V14.01,2013-06-26 15:05:00,
2013-06-26 11:06:00,86.6,54.1,29.77,NNW,328,3.1,5.8,33,0.00,,,0.00,VWS V14.01,2013-06-26 15:06:00,
2013-06-26 11:07:00,86.6,54.1,29.77,NNW,337,4.0,5.4,33,0.00,,,0.00,VWS V14.01,2013-06-26 15:07:00,
2013-06-26 11:08:00,86.6,54.1,29.77,SW,221,5.4,5.4,33,0.00,,,0.00,VWS V14.01,2013-06-26 15:08:00,
2013-06-26 11:09:00,86.6,54.1,29.77,SW,233,3.6,5.4,33,0.00,,,0.00,VWS V14.01,2013-06-26 15:09:00,
2013-06-26 11:10:00,86.8,54.3,29.77,North,357,2.2,4.0,33,0.00,,,0.00,VWS V14.01,2013-06-26 15:10:00,
2013-06-26 11:11:00,87.0,53.6,29.77,NNW,340,3.1,4.0,32,0.00,,,0.00,VWS V14.01,2013-06-26 15:11:00,
2013-06-26 11:12:00,87.2,53.8,29.77,North,350,0.0,3.6,32,0.00,,,0.00,VWS V14.01,2013-06-26 15:12:00,
2013-06-26 11:13:00,87.2,53.8,29.77,NW,320,2.7,5.8,32,0.00,,,0.00,VWS V14.01,2013-06-26 15:13:00,
2013-06-26 11:14:00,87.4,53.9,29.77,NNW,333,4.0,4.0,32,0.00,,,0.00,VWS V14.01,2013-06-26 15:14:00,
2013-06-26 11:15:00,87.5,54.1,29.77,NW,322,3.6,4.9,32,0.00,,,0.00,VWS V14.01,2013-06-26 15:15:00,
2013-06-26 11:16:00,87.5,54.1,29.77,NW,321,4.0,4.0,32,0.00,,,0.00,VWS V14.01,2013-06-26 15:16:00,
2013-06-26 11:17:00,87.5,54.1,29.77,NW,322,7.2,7.2,32,0.00,,,0.00,VWS V14.01,2013-06-26 15:17:00,
2013-06-26 11:18:00,87.4,53.9,29.77,NW,312,4.0,7.2,32,0.00,,,0.00,VWS V14.01,2013-06-26 15:18:00,
2013-06-26 11:19:00,87.4,53.9,29.77,SE,137,0.0,4.0,32,0.00,,,0.00,VWS V14.01,2013-06-26 15:19:00,
2013-06-26 11:20:00,87.4,53.9,29.77,SSW,209,3.6,4.9,32,0.00,,,0.00,VWS V14.01,2013-06-26 15:20:00,
2013-06-26 11:21:00,87.4,53.9,29.77,South,182,3.1,3.6,32,0.00,,,0.00,VWS V14.01,2013-06-26 15:21:00,
2013-06-26 11:22:00,87.4,53.9,29.77,NNW,327,2.2,4.0,32,0.00,,,0.00,VWS V14.01,2013-06-26 15:22:00,
2013-06-26 11:23:00,87.4,53.9,29.77,NW,316,0.0,2.2,32,0.00,,,0.00,VWS V14.01,2013-06-26 15:23:00,
2013-06-26 11:24:00,87.5,54.1,29.77,WNW,302,2.7,3.6,32,0.00,,,0.00,VWS V14.01,2013-06-26 15:24:00,
2013-06-26 11:25:00,87.7,54.2,29.77,NW,308,0.0,2.7,32,0.00,,,0.00,VWS V14.01,2013-06-26 15:25:00,
2013-06-26 11:26:00,87.7,54.2,29.77,NNW,335,0.0,3.1,32,0.00,,,0.00,VWS V14.01,2013-06-26 15:26:00,
2013-06-26 11:27:00,87.9,54.4,29.77,South,177,3.1,3.1,32,0.00,,,0.00,VWS V14.01,2013-06-26 15:27:00,
2013-06-26 11:28:00,87.9,54.4,29.77,WNW,293,2.2,4.0,32,0.00,,,0.00,VWS V14.01,2013-06-26 15:28:00,
2013-06-26 11:29:00,88.1,54.5,29.77,WNW,294,0.0,2.2,32,0.00,,,0.00,VWS V14.01,2013-06-26 15:29:00,
2013-06-26 11:30:00,88.1,54.5,29.77,WSW,242,0.0,0.0,32,0.00,,,0.00,VWS V14.01,2013-06-26 15:30:00,
2013-06-26 11:31:00,88.3,54.7,29.77,WSW,242,0.0,0.0,32,0.00,,,0.00,VWS V14.01,2013-06-26 15:31:00,
2013-06-26 11:32:00,88.8,55.2,29.77,South,172,0.0,0.0,32,0.00,,,0.00,VWS V14.01,2013-06-26 15:32:00,
2013-06-26 11:33:00,89.2,55.5,29.77,WSW,249,0.0,0.0,32,0.00,,,0.00,VWS V14.01,2013-06-26 15:33:00,
2013-06-26 11:34:00,89.2,55.5,29.77,WSW,251,3.1,3.6,32,0.00,,,0.00,VWS V14.01,2013-06-26 15:34:00,
2013-06-26 11:35:00,89.5,55.8,29.77,SSE,164,4.0,4.9,32,0.00,,,0.00,VWS V14.01,2013-06-26 15:35:00,
2013-06-26 11:36:00,89.7,55.1,29.77,SSW,202,2.7,4.0,31,0.00,,,0.00,VWS V14.01,2013-06-26 15:36:00,
2013-06-26 11:37:00,89.7,56.0,29.77,SW,231,2.2,5.4,32,0.00,,,0.00,VWS V14.01,2013-06-26 15:37:00,
2013-06-26 11:38:00,90.1,55.4,29.77,South,171,0.0,3.6,31,0.00,,,0.00,VWS V14.01,2013-06-26 15:38:00,
2013-06-26 11:39:00,90.2,55.5,29.77,South,187,0.0,0.0,31,0.00,,,0.00,VWS V14.01,2013-06-26 15:39:00,
2013-06-26 11:40:00,90.2,55.5,29.77,SSW,209,3.1,3.6,31,0.00,,,0.00,VWS V14.01,2013-06-26 15:40:00,
2013-06-26 11:41:00,90.4,54.8,29.77,SW,218,2.2,4.5,30,0.00,,,0.00,VWS V14.01,2013-06-26 15:41:00,
2013-06-26 11:42:00,90.4,55.7,29.77,SW,218,0.0,2.2,31,0.00,,,0.00,VWS V14.01,2013-06-26 15:42:00,
2013-06-26 11:43:00,90.6,55.8,29.77,West,261,2.7,2.7,31,0.00,,,0.00,VWS V14.01,2013-06-26 15:43:00,
2013-06-26 11:44:00,90.8,55.1,29.77,NW,311,2.2,2.2,30,0.00,,,0.00,VWS V14.01,2013-06-26 15:44:00,
2013-06-26 11:45:00,90.8,54.2,29.77,WNW,294,0.0,3.1,29,0.00,,,0.00,VWS V14.01,2013-06-26 15:45:00,
2013-06-26 11:46:00,90.6,54.0,29.77,SW,215,2.7,3.1,29,0.00,,,0.00,VWS V14.01,2013-06-26 15:46:00,
2013-06-26 11:47:00,90.6,54.0,29.77,WSW,253,0.0,2.7,29,0.00,,,0.00,VWS V14.01,2013-06-26 15:47:00,
2013-06-26 11:48:00,90.6,55.0,29.77,NW,312,0.0,0.0,30,0.00,,,0.00,VWS V14.01,2013-06-26 15:48:00,
2013-06-26 11:49:00,90.6,55.8,29.77,WSW,250,2.7,2.7,31,0.00,,,0.00,VWS V14.01,2013-06-26 15:49:00,
2013-06-26 11:50:00,90.6,55.0,29.77,South,177,0.0,2.7,30,0.00,,,0.00,VWS V14.01,2013-06-26 15:50:00,
2013-06-26 11:51:00,90.8,55.1,29.77,South,177,0.0,0.0,30,0.00,,,0.00,VWS V14.01,2013-06-26 15:51:00,
2013-06-26 11:52:00,90.8,55.1,29.77,SW,220,0.0,4.0,30,0.00,,,0.00,VWS V14.01,2013-06-26 15:52:00,
2013-06-26 11:53:00,91.0,54.3,29.77,SW,235,0.0,3.1,29,0.00,,,0.00,VWS V14.01,2013-06-26 15:53:00,
2013-06-26 11:54:00,91.1,53.5,29.77,SW,223,2.7,2.7,28,0.00,,,0.00,VWS V14.01,2013-06-26 15:54:00,
2013-06-26 11:55:00,91.3,53.7,29.77,SW,221,0.0,4.0,28,0.00,,,0.00,VWS V14.01,2013-06-26 15:55:00,
2013-06-26 11:56:00,91.5,53.8,29.77,SW,221,0.0,0.0,28,0.00,,,0.00,VWS V14.01,2013-06-26 15:56:00,
2013-06-26 11:57:00,91.7,55.0,29.77,West,275,4.0,4.9,29,0.00,,,0.00,VWS V14.01,2013-06-26 15:57:00,
2013-06-26 11:58:00,91.7,55.0,29.77,SW,226,4.0,4.0,29,0.00,,,0.00,VWS V14.01,2013-06-26 15:58:00,
2013-06-26 11:59:00,91.7,53.0,29.77,SSW,193,6.3,6.3,27,0.00,,,0.00,VWS V14.01,2013-06-26 15:59:00,
2013-06-26 12:00:00,91.5,52.8,29.77,WNW,289,2.7,6.3,27,0.00,,,0.00,VWS V14.01,2013-06-26 16:00:00,
2013-06-26 12:01:00,91.5,53.8,29.77,NNW,335,4.0,5.4,28,0.00,,,0.00,VWS V14.01,2013-06-26 16:01:00,
2013-06-26 12:02:00,91.5,54.8,29.77,West,279,3.6,4.0,29,0.00,,,0.00,VWS V14.01,2013-06-26 16:02:00,
2013-06-26 12:03:00,91.5,53.8,29.77,WNW,284,0.0,3.6,28,0.00,,,0.00,VWS V14.01,2013-06-26 16:03:00,
2013-06-26 12:04:00,91.5,53.8,29.77,WNW,290,0.0,0.0,28,0.00,,,0.00,VWS V14.01,2013-06-26 16:04:00,
2013-06-26 12:05:00,91.5,53.8,29.77,WNW,282,0.0,0.0,28,0.00,,,0.00,VWS V14.01,2013-06-26 16:05:00,
2013-06-26 12:06:00,91.5,53.8,29.77,SSE,151,0.0,0.0,28,0.00,,,0.00,VWS V14.01,2013-06-26 16:06:00,
2013-06-26 12:07:00,91.5,53.8,29.77,NNW,332,3.1,3.1,28,0.00,,,0.00,VWS V14.01,2013-06-26 16:07:00,
2013-06-26 12:08:00,91.5,53.8,29.77,NW,312,0.0,3.1,28,0.00,,,0.00,VWS V14.01,2013-06-26 16:08:00,
2013-06-26 12:09:00,91.5,53.8,29.77,SSW,213,0.0,0.0,28,0.00,,,0.00,VWS V14.01,2013-06-26 16:09:00,
2013-06-26 12:10:00,91.5,53.8,29.77,WSW,245,2.2,4.0,28,0.00,,,0.00,VWS V14.01,2013-06-26 16:10:00,
2013-06-26 12:11:00,91.5,53.8,29.77,West,268,0.0,3.1,28,0.00,,,0.00,VWS V14.01,2013-06-26 16:11:00,
2013-06-26 12:12:00,91.5,52.8,29.77,NW,310,0.0,0.0,27,0.00,,,0.00,VWS V14.01,2013-06-26 16:12:00,
2013-06-26 12:13:00,91.5,52.8,29.77,NW,314,3.1,3.1,27,0.00,,,0.00,VWS V14.01,2013-06-26 16:13:00,
2013-06-26 12:14:00,91.7,53.0,29.77,SE,128,2.2,2.2,27,0.00,,,0.00,VWS V14.01,2013-06-26 16:14:00,
2013-06-26 12:15:00,91.7,53.0,29.77,SE,128,0.0,2.2,27,0.00,,,0.00,VWS V14.01,2013-06-26 16:15:00,
2013-06-26 12:16:00,91.7,53.0,29.77,West,274,0.0,0.0,27,0.00,,,0.00,VWS V14.01,2013-06-26 16:16:00,
2013-06-26 12:17:00,91.7,53.0,29.77,East,96,0.0,4.0,27,0.00,,,0.00,VWS V14.01,2013-06-26 16:17:00,
2013-06-26 12:18:00,91.7,53.0,29.77,WNW,297,2.2,3.1,27,0.00,,,0.00,VWS V14.01,2013-06-26 16:18:00,
2013-06-26 12:19:00,91.7,53.0,29.77,WNW,300,0.0,0.0,27,0.00,,,0.00,VWS V14.01,2013-06-26 16:19:00,
2013-06-26 12:20:00,91.5,52.8,29.77,NNW,332,0.0,0.0,27,0.00,,,0.00,VWS V14.01,2013-06-26 16:20:00,
2013-06-26 12:21:00,91.5,52.8,29.77,NNW,332,0.0,0.0,27,0.00,,,0.00,VWS V14.01,2013-06-26 16:21:00,
2013-06-26 12:22:00,91.3,52.7,29.77,NNW,329,2.2,3.1,27,0.00,,,0.00,VWS V14.01,2013-06-26 16:22:00,
2013-06-26 12:23:00,91.1,52.5,29.77,NNW,329,0.0,2.2,27,0.00,,,0.00,VWS V14.01,2013-06-26 16:23:00,
2013-06-26 12:24:00,91.0,53.4,29.77,SW,229,4.0,4.0,28,0.00,,,0.00,VWS V14.01,2013-06-26 16:24:00,
2013-06-26 12:25:00,90.8,52.2,29.77,SW,229,2.7,4.0,27,0.00,,,0.00,VWS V14.01,2013-06-26 16:25:00,
2013-06-26 12:26:00,90.8,52.2,29.77,SE,137,0.0,2.7,27,0.00,,,0.00,VWS V14.01,2013-06-26 16:26:00,
2013-06-26 12:27:00,90.8,53.2,29.77,NNW,342,0.0,0.0,28,0.00,,,0.00,VWS V14.01,2013-06-26 16:27:00,
2013-06-26 12:28:00,90.8,53.2,29.77,SW,225,0.0,0.0,28,0.00,,,0.00,VWS V14.01,2013-06-26 16:28:00,
2013-06-26 12:29:00,91.0,54.3,29.77,WSW,238,0.0,0.0,29,0.00,,,0.00,VWS V14.01,2013-06-26 16:29:00,
2013-06-26 12:30:00,91.0,54.3,29.77,SW,226,0.0,0.0,29,0.00,,,0.00,VWS V14.01,2013-06-26 16:30:00,
2013-06-26 12:31:00,91.1,54.5,29.77,SW,221,0.0,0.0,29,0.00,,,0.00,VWS V14.01,2013-06-26 16:31:00,
2013-06-26 12:32:00,91.3,54.6,29.77,NNW,339,3.6,3.6,29,0.00,,,0.00,VWS V14.01,2013-06-26 16:32:00,
2013-06-26 12:33:00,91.5,54.8,29.77,South,172,2.2,3.6,29,0.00,,,0.00,VWS V14.01,2013-06-26 16:33:00,
2013-06-26 12:34:00,91.5,54.8,29.77,North,353,0.0,0.0,29,0.00,,,0.00,VWS V14.01,2013-06-26 16:34:00,
2013-06-26 12:35:00,91.5,54.8,29.77,NNW,346,0.0,0.0,29,0.00,,,0.00,VWS V14.01,2013-06-26 16:35:00,
2013-06-26 12:36:00,91.5,53.8,29.77,NW,318,3.1,3.1,28,0.00,,,0.00,VWS V14.01,2013-06-26 16:36:00,
2013-06-26 12:37:00,91.3,53.7,29.77,NNW,329,2.2,3.1,28,0.00,,,0.00,VWS V14.01,2013-06-26 16:37:00,
2013-06-26 12:38:00,91.1,53.5,29.77,NW,326,3.1,4.0,28,0.00,,,0.00,VWS V14.01,2013-06-26 16:38:00,
2013-06-26 12:39:00,91.0,53.4,29.77,NW,317,0.0,0.0,28,0.00,,,0.00,VWS V14.01,2013-06-26 16:39:00,
2013-06-26 12:40:00,90.8,54.2,29.77,NW,317,0.0,0.0,29,0.00,,,0.00,VWS V14.01,2013-06-26 16:40:00,
2013-06-26 12:41:00,90.8,54.2,29.77,NNW,348,0.0,0.0,29,0.00,,,0.00,VWS V14.01,2013-06-26 16:41:00,
2013-06-26 12:42:00,91.0,53.4,29.77,WSW,237,2.7,2.7,28,0.00,,,0.00,VWS V14.01,2013-06-26 16:42:00,
2013-06-26 12:43:00,91.1,54.5,29.77,ESE,112,2.2,3.6,29,0.00,,,0.00,VWS V14.01,2013-06-26 16:43:00,
2013-06-26 12:44:00,91.3,52.7,29.77,SSW,210,0.0,0.0,27,0.00,,,0.00,VWS V14.01,2013-06-26 16:44:00,
2013-06-26 12:45:00,91.3,52.7,29.77,SW,229,4.5,4.5,27,0.00,,,0.00,VWS V14.01,2013-06-26 16:45:00,
2013-06-26 12:46:00,91.7,53.0,29.77,SW,220,4.0,4.5,27,0.00,,,0.00,VWS V14.01,2013-06-26 16:46:00,
2013-06-26 12:47:00,91.9,53.2,29.77,WSW,245,2.7,4.9,27,0.00,,,0.00,VWS V14.01,2013-06-26 16:47:00,
2013-06-26 12:48:00,92.0,53.3,29.77,WSW,238,5.4,5.4,27,0.00,,,0.00,VWS V14.01,2013-06-26 16:48:00,
2013-06-26 12:49:00,92.2,52.4,29.77,SSW,212,3.1,3.6,26,0.00,,,0.00,VWS V14.01,2013-06-26 16:49:00,
2013-06-26 12:50:00,92.2,52.4,29.77,SSW,212,2.2,3.6,26,0.00,,,0.00,VWS V14.01,2013-06-26 16:50:00,
2013-06-26 12:51:00,92.4,51.5,29.77,WNW,302,0.0,2.2,25,0.00,,,0.00,VWS V14.01,2013-06-26 16:51:00,
2013-06-26 12:52:00,92.6,51.7,29.77,SW,218,2.2,5.8,25,0.00,,,0.00,VWS V14.01,2013-06-26 16:52:00,
2013-06-26 12:53:00,92.6,51.7,29.77,SSW,209,4.9,4.9,25,0.00,,,0.00,VWS V14.01,2013-06-26 16:53:00,
2013-06-26 12:54:00,92.8,51.8,29.77,NNW,339,2.7,4.0,25,0.00,,,0.00,VWS V14.01,2013-06-26 16:54:00,
2013-06-26 12:55:00,92.8,51.8,29.77,NNW,334,4.0,4.0,25,0.00,,,0.00,VWS V14.01,2013-06-26 16:55:00,
2013-06-26 12:56:00,92.9,52.0,29.77,NNW,341,2.7,4.0,25,0.00,,,0.00,VWS V14.01,2013-06-26 16:56:00,
2013-06-26 12:57:00,92.9,52.0,29.77,SW,223,4.0,4.0,25,0.00,,,0.00,VWS V14.01,2013-06-26 16:57:00,
2013-06-26 12:58:00,92.9,52.0,29.77,West,268,5.4,5.4,25,0.00,,,0.00,VWS V14.01,2013-06-26 16:58:00,
2013-06-26 12:59:00,92.9,52.0,29.77,ESE,105,0.0,3.1,25,0.00,,,0.00,VWS V14.01,2013-06-26 16:59:00,
2013-06-26 13:00:00,92.9,52.0,29.77,NW,324,0.0,3.1,25,0.00,,,0.00,VWS V14.01,2013-06-26 17:00:00,
2013-06-26 13:01:00,92.8,51.8,29.77,West,277,2.2,2.2,25,0.00,,,0.00,VWS V14.01,2013-06-26 17:01:00,
2013-06-26 13:02:00,92.8,51.8,29.77,WNW,294,2.7,4.0,25,0.00,,,0.00,VWS V14.01,2013-06-26 17:02:00,
2013-06-26 13:03:00,92.9,52.0,29.77,South,187,2.7,2.7,25,0.00,,,0.00,VWS V14.01,2013-06-26 17:03:00,
2013-06-26 13:04:00,92.9,52.0,29.77,SSW,200,2.7,4.9,25,0.00,,,0.00,VWS V14.01,2013-06-26 17:04:00,
2013-06-26 13:05:00,92.9,52.0,29.77,SW,216,0.0,2.7,25,0.00,,,0.00,VWS V14.01,2013-06-26 17:05:00,
2013-06-26 13:06:00,93.1,52.1,29.77,SW,224,3.1,3.1,25,0.00,,,0.00,VWS V14.01,2013-06-26 17:06:00,
2013-06-26 13:07:00,93.3,52.3,29.77,NW,315,0.0,4.0,25,0.00,,,0.00,VWS V14.01,2013-06-26 17:07:00,
2013-06-26 13:08:00,93.3,52.3,29.77,West,263,3.1,3.1,25,0.00,,,0.00,VWS V14.01,2013-06-26 17:08:00,
2013-06-26 13:09:00,93.5,52.4,29.77,WNW,297,0.0,3.1,25,0.00,,,0.00,VWS V14.01,2013-06-26 17:09:00,
2013-06-26 13:10:00,93.5,52.4,29.77,WNW,298,3.6,3.6,25,0.00,,,0.00,VWS V14.01,2013-06-26 17:10:00,
2013-06-26 13:11:00,93.3,52.3,29.77,NNW,338,2.7,4.9,25,0.00,,,0.00,VWS V14.01,2013-06-26 17:11:00,
2013-06-26 13:12:00,93.3,52.3,29.77,NW,319,2.7,3.1,25,0.00,,,0.00,VWS V14.01,2013-06-26 17:12:00,
2013-06-26 13:13:00,92.9,52.0,29.77,NW,319,2.2,2.7,25,0.00,,,0.00,VWS V14.01,2013-06-26 17:13:00,
2013-06-26 13:14:00,92.9,52.0,29.77,NW,309,0.0,2.2,25,0.00,,,0.00,VWS V14.01,2013-06-26 17:14:00,
2013-06-26 13:15:00,92.8,51.8,29.77,NW,310,2.2,3.6,25,0.00,,,0.00,VWS V14.01,2013-06-26 17:15:00,
2013-06-26 13:16:00,92.6,51.7,29.77,WNW,286,3.6,4.0,25,0.00,,,0.00,VWS V14.01,2013-06-26 17:16:00,
2013-06-26 13:17:00,92.2,51.4,29.77,NW,307,0.0,3.6,25,0.00,,,0.00,VWS V14.01,2013-06-26 17:17:00,
2013-06-26 13:18:00,92.0,51.2,29.77,NE,51,3.6,5.4,25,0.00,,,0.00,VWS V14.01,2013-06-26 17:18:00,
2013-06-26 13:19:00,91.9,51.1,29.77,NW,323,0.0,3.6,25,0.00,,,0.00,VWS V14.01,2013-06-26 17:19:00,
2013-06-26 13:20:00,91.7,52.0,29.77,WNW,295,0.0,0.0,26,0.00,,,0.00,VWS V14.01,2013-06-26 17:20:00,
2013-06-26 13:21:00,91.5,51.8,29.77,NNW,339,0.0,0.0,26,0.00,,,0.00,VWS V14.01,2013-06-26 17:21:00,
2013-06-26 13:22:00,91.5,51.8,29.77,NNW,329,0.0,2.7,26,0.00,,,0.00,VWS V14.01,2013-06-26 17:22:00,
2013-06-26 13:23:00,91.3,51.7,29.77,SW,220,2.2,3.6,26,0.00,,,0.00,VWS V14.01,2013-06-26 17:23:00,
2013-06-26 13:24:00,91.3,51.7,29.77,WSW,251,2.7,4.0,26,0.00,,,0.00,VWS V14.01,2013-06-26 17:24:00,
2013-06-26 13:25:00,91.3,51.7,29.77,NNW,340,2.7,2.7,26,0.00,,,0.00,VWS V14.01,2013-06-26 17:25:00,
2013-06-26 13:26:00,91.3,51.7,29.77,NNW,334,2.7,3.6,26,0.00,,,0.00,VWS V14.01,2013-06-26 17:26:00,
2013-06-26 13:27:00,91.3,52.7,29.77,NNW,331,3.6,3.6,27,0.00,,,0.00,VWS V14.01,2013-06-26 17:27:00,
2013-06-26 13:28:00,91.3,52.7,29.77,NW,325,4.0,4.0,27,0.00,,,0.00,VWS V14.01,2013-06-26 17:28:00,
2013-06-26 13:29:00,91.3,51.7,29.77,NW,324,3.1,4.0,26,0.00,,,0.00,VWS V14.01,2013-06-26 17:29:00,
2013-06-26 13:30:00,91.3,51.7,29.77,NW,318,0.0,4.0,26,0.00,,,0.00,VWS V14.01,2013-06-26 17:30:00,
2013-06-26 13:31:00,91.1,51.5,29.77,South,188,0.0,3.1,26,0.00,,,0.00,VWS V14.01,2013-06-26 17:31:00,
2013-06-26 13:32:00,91.3,52.7,29.77,West,261,0.0,0.0,27,0.00,,,0.00,VWS V14.01,2013-06-26 17:32:00,
2013-06-26 13:33:00,91.3,52.7,29.77,West,261,0.0,0.0,27,0.00,,,0.00,VWS V14.01,2013-06-26 17:33:00,
2013-06-26 13:34:00,91.5,53.8,29.77,SW,218,3.1,3.1,28,0.00,,,0.00,VWS V14.01,2013-06-26 17:34:00,
2013-06-26 13:35:00,91.7,53.0,29.77,WSW,251,0.0,3.1,27,0.00,,,0.00,VWS V14.01,2013-06-26 17:35:00,
2013-06-26 13:36:00,91.9,52.1,29.77,SW,233,4.0,4.0,26,0.00,,,0.00,VWS V14.01,2013-06-26 17:36:00,
2013-06-26 13:37:00,92.2,52.4,29.77,SSW,211,0.0,4.5,26,0.00,,,0.00,VWS V14.01,2013-06-26 17:37:00,
2013-06-26 13:38:00,92.2,53.5,29.77,NNW,328,0.0,0.0,27,0.00,,,0.00,VWS V14.01,2013-06-26 17:38:00,
2013-06-26 13:39:00,92.4,52.6,29.77,NNW,328,0.0,0.0,26,0.00,,,0.00,VWS V14.01,2013-06-26 17:39:00,
2013-06-26 13:40:00,92.6,52.7,29.77,South,188,2.7,2.7,26,0.00,,,0.00,VWS V14.01,2013-06-26 17:40:00,
2013-06-26 13:41:00,92.6,52.7,29.77,SW,230,3.1,3.1,26,0.00,,,0.00,VWS V14.01,2013-06-26 17:41:00,
2013-06-26 13:42:00,92.8,52.9,29.77,WSW,237,0.0,3.6,26,0.00,,,0.00,VWS V14.01,2013-06-26 17:42:00,
2013-06-26 13:43:00,92.8,52.9,29.77,SW,218,4.0,4.0,26,0.00,,,0.00,VWS V14.01,2013-06-26 17:43:00,
2013-06-26 13:44:00,92.9,53.0,29.77,SW,227,3.6,4.0,26,0.00,,,0.00,VWS V14.01,2013-06-26 17:44:00,
2013-06-26 13:45:00,92.9,53.0,29.77,NW,322,3.6,4.0,26,0.00,,,0.00,VWS V14.01,2013-06-26 17:45:00,
2013-06-26 13:46:00,93.1,52.1,29.77,WNW,303,2.2,3.6,25,0.00,,,0.00,VWS V14.01,2013-06-26 17:46:00,
2013-06-26 13:47:00,93.1,52.1,29.77,NNW,332,4.0,4.0,25,0.00,,,0.00,VWS V14.01,2013-06-26 17:47:00,
2013-06-26 13:48:00,93.3,52.3,29.77,NW,317,3.6,4.0,25,0.00,,,0.00,VWS V14.01,2013-06-26 17:48:00,
2013-06-26 13:49:00,93.1,52.1,29.77,West,281,4.0,4.0,25,0.00,,,0.00,VWS V14.01,2013-06-26 17:49:00,
2013-06-26 13:50:00,92.9,52.0,29.77,NE,41,2.2,2.7,25,0.00,,,0.00,VWS V14.01,2013-06-26 17:50:00,
2013-06-26 13:51:00,92.9,52.0,29.77,SW,227,0.0,6.3,25,0.00,,,0.00,VWS V14.01,2013-06-26 17:51:00,
2013-06-26 13:52:00,92.9,52.0,29.77,South,169,0.0,0.0,25,0.00,,,0.00,VWS V14.01,2013-06-26 17:52:00,
2013-06-26 13:53:00,92.9,52.0,29.77,SSW,192,0.0,0.0,25,0.00,,,0.00,VWS V14.01,2013-06-26 17:53:00,
2013-06-26 13:54:00,92.9,52.0,29.77,West,267,0.0,0.0,25,0.00,,,0.00,VWS V14.01,2013-06-26 17:54:00,
2013-06-26 13:55:00,93.1,52.1,29.77,West,267,0.0,0.0,25,0.00,,,0.00,VWS V14.01,2013-06-26 17:55:00,
2013-06-26 13:56:00,93.1,52.1,29.77,West,267,0.0,0.0,25,0.00,,,0.00,VWS V14.01,2013-06-26 17:56:00,
2013-06-26 13:57:00,93.1,52.1,29.77,West,267,0.0,0.0,25,0.00,,,0.00,VWS V14.01,2013-06-26 17:57:00,
2013-06-26 13:58:00,93.3,53.3,29.77,West,267,0.0,0.0,26,0.00,,,0.00,VWS V14.01,2013-06-26 17:58:00,
2013-06-26 13:59:00,93.3,53.3,29.77,NW,325,0.0,0.0,26,0.00,,,0.00,VWS V14.01,2013-06-26 17:59:00,
2013-06-26 14:00:00,93.3,53.3,29.77,NW,325,0.0,0.0,26,0.00,,,0.00,VWS V14.01,2013-06-26 18:00:00,
2013-06-26 14:01:00,93.5,53.5,29.77,South,174,0.0,0.0,26,0.00,,,0.00,VWS V14.01,2013-06-26 18:01:00,
2013-06-26 14:02:00,93.5,53.5,29.77,WNW,298,0.0,0.0,26,0.00,,,0.00,VWS V14.01,2013-06-26 18:02:00,
2013-06-26 14:03:00,93.7,53.6,29.77,NW,306,0.0,0.0,26,0.00,,,0.00,VWS V14.01,2013-06-26 18:03:00,
2013-06-26 14:04:00,93.5,53.5,29.74,NNW,344,2.2,3.6,26,0.00,,,0.00,VWS V14.01,2013-06-26 18:04:00,
2013-06-26 14:05:00,93.5,52.4,29.74,NW,319,0.0,0.0,25,0.00,,,0.00,VWS V14.01,2013-06-26 18:05:00,
2013-06-26 14:06:00,93.5,52.4,29.74,NNW,329,0.0,0.0,25,0.00,,,0.00,VWS V14.01,2013-06-26 18:06:00,
2013-06-26 14:07:00,93.5,53.5,29.74,North,357,0.0,0.0,26,0.00,,,0.00,VWS V14.01,2013-06-26 18:07:00,
2013-06-26 14:08:00,93.5,53.5,29.74,WSW,246,0.0,0.0,26,0.00,,,0.00,VWS V14.01,2013-06-26 18:08:00,
2013-06-26 14:09:00,93.5,53.5,29.74,WSW,246,0.0,0.0,26,0.00,,,0.00,VWS V14.01,2013-06-26 18:09:00,
2013-06-26 14:10:00,93.3,53.3,29.74,WNW,287,4.9,4.9,26,0.00,,,0.00,VWS V14.01,2013-06-26 18:10:00,
2013-06-26 14:11:00,93.3,53.3,29.74,NNE,16,0.0,4.9,26,0.00,,,0.00,VWS V14.01,2013-06-26 18:11:00,
2013-06-26 14:12:00,93.3,52.3,29.74,NNW,330,2.2,6.3,25,0.00,,,0.00,VWS V14.01,2013-06-26 18:12:00,
2013-06-26 14:13:00,93.3,52.3,29.74,SW,231,0.0,3.1,25,0.00,,,0.00,VWS V14.01,2013-06-26 18:13:00,
2013-06-26 14:14:00,93.1,52.1,29.74,North,0,4.9,4.9,25,0.00,,,0.00,VWS V14.01,2013-06-26 18:14:00,
2013-06-26 14:15:00,92.9,52.0,29.74,WSW,241,0.0,3.1,25,0.00,,,0.00,VWS V14.01,2013-06-26 18:15:00,
2013-06-26 14:16:00,92.9,52.0,29.74,West,263,0.0,3.1,25,0.00,,,0.00,VWS V14.01,2013-06-26 18:16:00,
2013-06-26 14:17:00,92.8,51.8,29.74,NW,305,4.9,4.9,25,0.00,,,0.00,VWS V14.01,2013-06-26 18:17:00,
2013-06-26 14:18:00,92.8,51.8,29.74,WNW,285,0.0,4.9,25,0.00,,,0.00,VWS V14.01,2013-06-26 18:18:00,
2013-06-26 14:19:00,92.8,51.8,29.74,WSW,250,0.0,0.0,25,0.00,,,0.00,VWS V14.01,2013-06-26 18:19:00,
2013-06-26 14:20:00,92.6,51.7,29.74,SSW,205,0.0,0.0,25,0.00,,,0.00,VWS V14.01,2013-06-26 18:20:00,
2013-06-26 14:21:00,92.6,51.7,29.74,SSW,205,0.0,0.0,25,0.00,,,0.00,VWS V14.01,2013-06-26 18:21:00,
2013-06-26 14:22:00,92.6,51.7,29.74,SSW,192,3.1,3.1,25,0.00,,,0.00,VWS V14.01,2013-06-26 18:22:00,
2013-06-26 14:23:00,92.6,51.7,29.74,WNW,295,4.0,4.0,25,0.00,,,0.00,VWS V14.01,2013-06-26 18:23:00,
2013-06-26 14:24:00,92.6,51.7,29.74,NNW,342,4.9,4.9,25,0.00,,,0.00,VWS V14.01,2013-06-26 18:24:00,
2013-06-26 14:25:00,92.6,51.7,29.74,WNW,290,5.4,5.4,25,0.00,,,0.00,VWS V14.01,2013-06-26 18:25:00,
2013-06-26 14:26:00,92.6,51.7,29.74,NW,314,2.7,6.3,25,0.00,,,0.00,VWS V14.01,2013-06-26 18:26:00,
2013-06-26 14:27:00,92.4,51.5,29.74,WNW,297,6.3,6.3,25,0.00,,,0.00,VWS V14.01,2013-06-26 18:27:00,
2013-06-26 14:28:00,92.4,51.5,29.74,NNW,334,6.3,6.3,25,0.00,,,0.00,VWS V14.01,2013-06-26 18:28:00,
2013-06-26 14:29:00,92.2,51.4,29.74,WNW,288,3.6,6.3,25,0.00,,,0.00,VWS V14.01,2013-06-26 18:29:00,
2013-06-26 14:30:00,92.0,51.2,29.74,NW,326,3.1,6.3,25,0.00,,,0.00,VWS V14.01,2013-06-26 18:30:00,
2013-06-26 14:31:00,92.0,51.2,29.74,NNW,337,4.9,6.3,25,0.00,,,0.00,VWS V14.01,2013-06-26 18:31:00,
2013-06-26 14:32:00,91.9,51.1,29.74,SW,223,3.1,4.9,25,0.00,,,0.00,VWS V14.01,2013-06-26 18:32:00,
2013-06-26 14:33:00,91.7,52.0,29.74,NW,313,2.7,4.9,26,0.00,,,0.00,VWS V14.01,2013-06-26 18:33:00,
2013-06-26 14:34:00,91.7,52.0,29.74,NNW,339,2.7,5.4,26,0.00,,,0.00,VWS V14.01,2013-06-26 18:34:00,
2013-06-26 14:35:00,91.7,52.0,29.74,NW,319,3.1,3.6,26,0.00,,,0.00,VWS V14.01,2013-06-26 18:35:00,
2013-06-26 14:36:00,91.7,52.0,29.74,NNW,346,3.1,4.0,26,0.00,,,0.00,VWS V14.01,2013-06-26 18:36:00,
2013-06-26 14:37:00,91.5,51.8,29.74,NNW,335,0.0,3.6,26,0.00,,,0.00,VWS V14.01,2013-06-26 18:37:00,
2013-06-26 14:38:00,91.3,51.7,29.74,NNW,335,0.0,0.0,26,0.00,,,0.00,VWS V14.01,2013-06-26 18:38:00,
2013-06-26 14:39:00,91.1,51.5,29.74,NNW,327,0.0,5.8,26,0.00,,,0.00,VWS V14.01,2013-06-26 18:39:00,
2013-06-26 14:40:00,91.1,51.5,29.74,NNW,327,0.0,0.0,26,0.00,,,0.00,VWS V14.01,2013-06-26 18:40:00,
2013-06-26 14:41:00,91.1,52.5,29.74,NNW,327,0.0,0.0,27,0.00,,,0.00,VWS V14.01,2013-06-26 18:41:00,
2013-06-26 14:42:00,91.1,52.5,29.74,NNW,327,0.0,0.0,27,0.00,,,0.00,VWS V14.01,2013-06-26 18:42:00,
2013-06-26 14:43:00,91.1,52.5,29.74,SSE,166,0.0,0.0,27,0.00,,,0.00,VWS V14.01,2013-06-26 18:43:00,
2013-06-26 14:44:00,91.1,52.5,29.74,SSW,207,0.0,3.6,27,0.00,,,0.00,VWS V14.01,2013-06-26 18:44:00,
2013-06-26 14:45:00,91.3,51.7,29.74,SW,235,4.0,4.0,26,0.00,,,0.00,VWS V14.01,2013-06-26 18:45:00,
2013-06-26 14:46:00,91.3,51.7,29.74,South,185,2.7,4.0,26,0.00,,,0.00,VWS V14.01,2013-06-26 18:46:00,
2013-06-26 14:47:00,91.7,53.0,29.74,West,273,2.2,3.6,27,0.00,,,0.00,VWS V14.01,2013-06-26 18:47:00,
2013-06-26 14:48:00,91.7,53.0,29.74,SE,145,0.0,2.7,27,0.00,,,0.00,VWS V14.01,2013-06-26 18:48:00,
2013-06-26 14:49:00,91.9,52.1,29.74,SW,226,0.0,2.2,26,0.00,,,0.00,VWS V14.01,2013-06-26 18:49:00,
2013-06-26 14:50:00,92.2,53.5,29.74,SW,228,0.0,0.0,27,0.00,,,0.00,VWS V14.01,2013-06-26 18:50:00,
2013-06-26 14:51:00,92.2,53.5,29.74,SW,228,0.0,0.0,27,0.00,,,0.00,VWS V14.01,2013-06-26 18:51:00,
2013-06-26 14:52:00,92.4,52.6,29.74,West,266,0.0,0.0,26,0.00,,,0.00,VWS V14.01,2013-06-26 18:52:00,
2013-06-26 14:53:00,92.6,53.8,29.74,NW,316,3.1,4.5,27,0.00,,,0.00,VWS V14.01,2013-06-26 18:53:00,
2013-06-26 14:54:00,92.6,52.7,29.74,NW,308,0.0,3.1,26,0.00,,,0.00,VWS V14.01,2013-06-26 18:54:00,
2013-06-26 14:55:00,92.8,52.9,29.74,NW,305,0.0,0.0,26,0.00,,,0.00,VWS V14.01,2013-06-26 18:55:00,
2013-06-26 14:56:00,92.8,52.9,29.74,NW,317,3.1,3.1,26,0.00,,,0.00,VWS V14.01,2013-06-26 18:56:00,
2013-06-26 14:57:00,92.8,52.9,29.74,NW,321,0.0,3.1,26,0.00,,,0.00,VWS V14.01,2013-06-26 18:57:00,
2013-06-26 14:58:00,92.8,52.9,29.74,NW,318,0.0,0.0,26,0.00,,,0.00,VWS V14.01,2013-06-26 18:58:00,
2013-06-26 14:59:00,92.8,52.9,29.74,NW,304,0.0,0.0,26,0.00,,,0.00,VWS V14.01,2013-06-26 18:59:00,
2013-06-26 15:00:00,92.8,52.9,29.74,NW,304,0.0,0.0,26,0.00,,,0.00,VWS V14.01,2013-06-26 19:00:00,
2013-06-26 15:01:00,92.8,52.9,29.74,NW,304,0.0,0.0,26,0.00,,,0.00,VWS V14.01,2013-06-26 19:01:00,
2013-06-26 15:02:00,92.6,52.7,29.74,West,272,0.0,0.0,26,0.00,,,0.00,VWS V14.01,2013-06-26 19:02:00,
2013-06-26 15:03:00,92.6,52.7,29.74,WSW,238,3.6,3.6,26,0.00,,,0.00,VWS V14.01,2013-06-26 19:03:00,
2013-06-26 15:04:00,92.4,52.6,29.74,WNW,285,2.7,3.6,26,0.00,,,0.00,VWS V14.01,2013-06-26 19:04:00,
2013-06-26 15:05:00,92.4,52.6,29.74,SW,234,0.0,0.0,26,0.00,,,0.00,VWS V14.01,2013-06-26 19:05:00,
2013-06-26 15:06:00,92.4,52.6,29.74,NW,308,2.7,2.7,26,0.00,,,0.00,VWS V14.01,2013-06-26 19:06:00,
2013-06-26 15:07:00,92.4,53.6,29.74,WNW,288,2.7,5.8,27,0.00,,,0.00,VWS V14.01,2013-06-26 19:07:00,
2013-06-26 15:08:00,92.4,53.6,29.74,West,279,0.0,2.7,27,0.00,,,0.00,VWS V14.01,2013-06-26 19:08:00,
2013-06-26 15:09:00,92.4,53.6,29.74,South,170,0.0,0.0,27,0.00,,,0.00,VWS V14.01,2013-06-26 19:09:00,
2013-06-26 15:10:00,92.4,53.6,29.74,SSW,206,0.0,2.2,27,0.00,,,0.00,VWS V14.01,2013-06-26 19:10:00,
2013-06-26 15:11:00,92.4,53.6,29.74,SSW,206,0.0,2.2,27,0.00,,,0.00,VWS V14.01,2013-06-26 19:11:00,
2013-06-26 15:12:00,92.4,53.6,29.74,NNW,346,0.0,0.0,27,0.00,,,0.00,VWS V14.01,2013-06-26 19:12:00,
2013-06-26 15:13:00,92.4,53.6,29.74,NNW,346,0.0,0.0,27,0.00,,,0.00,VWS V14.01,2013-06-26 19:13:00,
2013-06-26 15:14:00,92.6,53.8,29.74,NW,324,2.7,5.4,27,0.00,,,0.00,VWS V14.01,2013-06-26 19:14:00,
2013-06-26 15:15:00,92.4,53.6,29.74,NW,318,2.7,4.5,27,0.00,,,0.00,VWS V14.01,2013-06-26 19:15:00,
2013-06-26 15:16:00,92.4,53.6,29.74,NNW,331,2.7,4.5,27,0.00,,,0.00,VWS V14.01,2013-06-26 19:16:00,
2013-06-26 15:17:00,92.4,53.6,29.74,West,280,0.0,3.1,27,0.00,,,0.00,VWS V14.01,2013-06-26 19:17:00,
2013-06-26 15:18:00,92.4,54.6,29.74,WNW,300,0.0,0.0,28,0.00,,,0.00,VWS V14.01,2013-06-26 19:18:00,
2013-06-26 15:19:00,92.2,54.4,29.74,ENE,62,0.0,0.0,28,0.00,,,0.00,VWS V14.01,2013-06-26 19:19:00,
2013-06-26 15:20:00,92.2,54.4,29.74,NNE,15,6.3,6.3,28,0.00,,,0.00,VWS V14.01,2013-06-26 19:20:00,
2013-06-26 15:21:00,92.2,54.5,29.74,WSW,240,0.0,6.3,28,0.00,,,0.00,VWS V14.01,2013-06-26 19:21:00,
2013-06-26 15:22:00,92.2,54.4,29.74,SW,234,2.7,3.6,28,0.00,,,0.00,VWS V14.01,2013-06-26 19:22:00,
2013-06-26 15:23:00,92.2,54.4,29.74,SSW,205,4.0,5.4,28,0.00,,,0.00,VWS V14.01,2013-06-26 19:23:00,
2013-06-26 15:24:00,92.2,53.5,29.74,SW,229,3.1,4.0,27,0.00,,,0.00,VWS V14.01,2013-06-26 19:24:00,
2013-06-26 15:25:00,92.2,52.4,29.74,SW,221,2.7,3.1,26,0.00,,,0.00,VWS V14.01,2013-06-26 19:25:00,
2013-06-26 15:26:00,92.2,53.5,29.74,NW,326,0.0,3.1,27,0.00,,,0.00,VWS V14.01,2013-06-26 19:26:00,
2013-06-26 15:27:00,92.2,52.4,29.74,SW,230,0.0,3.6,26,0.00,,,0.00,VWS V14.01,2013-06-26 19:27:00,
2013-06-26 15:28:00,92.4,52.6,29.74,SW,230,0.0,0.0,26,0.00,,,0.00,VWS V14.01,2013-06-26 19:28:00,
2013-06-26 15:29:00,92.4,52.6,29.74,West,261,0.0,0.0,26,0.00,,,0.00,VWS V14.01,2013-06-26 19:29:00,
2013-06-26 15:30:00,92.6,53.8,29.74,North,8,5.4,5.4,27,0.00,,,0.00,VWS V14.01,2013-06-26 19:30:00,
2013-06-26 15:31:00,92.6,53.8,29.74,SW,219,2.2,5.4,27,0.00,,,0.00,VWS V14.01,2013-06-26 19:31:00,
2013-06-26 15:32:00,92.8,53.9,29.74,ESE,102,0.0,2.2,27,0.00,,,0.00,VWS V14.01,2013-06-26 19:32:00,
2013-06-26 15:33:00,92.8,53.9,29.74,South,176,3.6,6.3,27,0.00,,,0.00,VWS V14.01,2013-06-26 19:33:00,
2013-06-26 15:34:00,92.8,53.9,29.71,SW,214,0.0,5.8,27,0.00,,,0.00,VWS V14.01,2013-06-26 19:34:00,
2013-06-26 15:35:00,92.8,53.9,29.71,ENE,72,0.0,4.0,27,0.00,,,0.00,VWS V14.01,2013-06-26 19:35:00,
2013-06-26 15:36:00,92.8,53.9,29.71,NW,323,0.0,0.0,27,0.00,,,0.00,VWS V14.01,2013-06-26 19:36:00,
2013-06-26 15:37:00,92.9,54.1,29.71,North,353,0.0,2.7,27,0.00,,,0.00,VWS V14.01,2013-06-26 19:37:00,
2013-06-26 15:38:00,92.8,53.9,29.71,SE,135,2.2,2.2,27,0.00,,,0.00,VWS V14.01,2013-06-26 19:38:00,
2013-06-26 15:39:00,92.9,54.1,29.71,West,261,2.2,2.2,27,0.00,,,0.00,VWS V14.01,2013-06-26 19:39:00,
2013-06-26 15:40:00,92.9,54.1,29.71,North,0,0.0,3.1,27,0.00,,,0.00,VWS V14.01,2013-06-26 19:40:00,
2013-06-26 15:41:00,92.9,55.1,29.71,NW,314,2.7,4.0,28,0.00,,,0.00,VWS V14.01,2013-06-26 19:41:00,
2013-06-26 15:42:00,92.9,55.1,29.71,NNW,335,0.0,5.4,28,0.00,,,0.00,VWS V14.01,2013-06-26 19:42:00,
2013-06-26 15:43:00,92.9,54.1,29.71,NW,323,0.0,3.1,27,0.00,,,0.00,VWS V14.01,2013-06-26 19:43:00,
2013-06-26 15:44:00,92.8,53.9,29.71,NW,323,0.0,0.0,27,0.00,,,0.00,VWS V14.01,2013-06-26 19:44:00,
2013-06-26 15:45:00,92.8,53.9,29.71,NNW,333,0.0,0.0,27,0.00,,,0.00,VWS V14.01,2013-06-26 19:45:00,
2013-06-26 15:46:00,92.8,54.9,29.71,WSW,250,2.7,2.7,28,0.00,,,0.00,VWS V14.01,2013-06-26 19:46:00,
2013-06-26 15:47:00,92.6,54.8,29.71,SSW,213,0.0,3.1,28,0.00,,,0.00,VWS V14.01,2013-06-26 19:47:00,
2013-06-26 15:48:00,92.4,53.6,29.71,WNW,302,3.1,4.0,27,0.00,,,0.00,VWS V14.01,2013-06-26 19:48:00,
2013-06-26 15:49:00,92.4,53.6,29.71,WSW,246,2.7,3.1,27,0.00,,,0.00,VWS V14.01,2013-06-26 19:49:00,
2013-06-26 15:50:00,92.2,54.4,29.71,SW,233,0.0,2.7,28,0.00,,,0.00,VWS V14.01,2013-06-26 19:50:00,
2013-06-26 15:51:00,92.2,54.5,29.71,SSE,168,2.2,3.6,28,0.00,,,0.00,VWS V14.01,2013-06-26 19:51:00,
2013-06-26 15:52:00,92.2,55.4,29.71,ESE,117,0.0,2.2,29,0.00,,,0.00,VWS V14.01,2013-06-26 19:52:00,
2013-06-26 15:53:00,92.2,55.4,29.71,SW,217,2.2,2.7,29,0.00,,,0.00,VWS V14.01,2013-06-26 19:53:00,
2013-06-26 15:54:00,92.2,55.4,29.71,SW,216,2.2,3.6,29,0.00,,,0.00,VWS V14.01,2013-06-26 19:54:00,
2013-06-26 15:55:00,92.2,55.4,29.71,South,175,2.7,2.7,29,0.00,,,0.00,VWS V14.01,2013-06-26 19:55:00,
2013-06-26 15:56:00,92.2,55.4,29.71,SW,230,2.7,3.1,29,0.00,,,0.00,VWS V14.01,2013-06-26 19:56:00,
2013-06-26 15:57:00,92.2,55.4,29.71,SW,230,0.0,3.1,29,0.00,,,0.00,VWS V14.01,2013-06-26 19:57:00,
2013-06-26 15:58:00,92.4,55.6,29.71,WNW,285,0.0,0.0,29,0.00,,,0.00,VWS V14.01,2013-06-26 19:58:00,
2013-06-26 15:59:00,92.6,55.7,29.71,WNW,288,0.0,0.0,29,0.00,,,0.00,VWS V14.01,2013-06-26 19:59:00,
2013-06-26 16:00:00,92.6,56.7,29.71,North,350,0.0,4.0,30,0.00,,,0.00,VWS V14.01,2013-06-26 20:00:00,
2013-06-26 16:01:00,92.8,55.9,29.71,WSW,242,0.0,0.0,29,0.00,,,0.00,VWS V14.01,2013-06-26 20:01:00,
2013-06-26 16:02:00,92.8,55.9,29.71,West,260,0.0,0.0,29,0.00,,,0.00,VWS V14.01,2013-06-26 20:02:00,
2013-06-26 16:03:00,92.8,54.9,29.71,SSE,150,0.0,0.0,28,0.00,,,0.00,VWS V14.01,2013-06-26 20:03:00,
2013-06-26 16:04:00,92.9,55.1,29.71,SE,137,0.0,4.0,28,0.00,,,0.00,VWS V14.01,2013-06-26 20:04:00,
2013-06-26 16:05:00,92.9,55.1,29.71,SE,136,0.0,0.0,28,0.00,,,0.00,VWS V14.01,2013-06-26 20:05:00,
2013-06-26 16:06:00,92.9,55.1,29.71,NNW,336,0.0,4.0,28,0.00,,,0.00,VWS V14.01,2013-06-26 20:06:00,
2013-06-26 16:07:00,93.1,56.2,29.71,SE,130,0.0,0.0,29,0.00,,,0.00,VWS V14.01,2013-06-26 20:07:00,
2013-06-26 16:08:00,93.1,56.2,29.71,SW,217,2.2,3.1,29,0.00,,,0.00,VWS V14.01,2013-06-26 20:08:00,
2013-06-26 16:09:00,93.1,55.2,29.71,NNW,328,0.0,2.2,28,0.00,,,0.00,VWS V14.01,2013-06-26 20:09:00,
2013-06-26 16:10:00,93.3,55.4,29.71,NNW,328,0.0,0.0,28,0.00,,,0.00,VWS V14.01,2013-06-26 20:10:00,
2013-06-26 16:11:00,93.3,55.4,29.71,SW,225,0.0,0.0,28,0.00,,,0.00,VWS V14.01,2013-06-26 20:11:00,
2013-06-26 16:12:00,93.3,55.4,29.71,West,262,0.0,0.0,28,0.00,,,0.00,VWS V14.01,2013-06-26 20:12:00,
2013-06-26 16:13:00,93.5,56.5,29.71,SW,228,2.7,4.0,29,0.00,,,0.00,VWS V14.01,2013-06-26 20:13:00,
2013-06-26 16:14:00,93.5,55.5,29.71,South,172,2.7,3.6,28,0.00,,,0.00,VWS V14.01,2013-06-26 20:14:00,
2013-06-26 16:15:00,93.5,55.5,29.71,WNW,293,3.6,3.6,28,0.00,,,0.00,VWS V14.01,2013-06-26 20:15:00,
2013-06-26 16:16:00,93.5,55.5,29.71,SSW,202,2.7,3.1,28,0.00,,,0.00,VWS V14.01,2013-06-26 20:16:00,
2013-06-26 16:17:00,93.5,55.5,29.71,SW,225,0.0,3.1,28,0.00,,,0.00,VWS V14.01,2013-06-26 20:17:00,
2013-06-26 16:18:00,93.3,55.4,29.71,SSW,193,3.1,3.1,28,0.00,,,0.00,VWS V14.01,2013-06-26 20:18:00,
2013-06-26 16:19:00,93.3,56.3,29.71,SSW,200,2.7,3.1,29,0.00,,,0.00,VWS V14.01,2013-06-26 20:19:00,
2013-06-26 16:20:00,93.3,56.3,29.71,SW,218,0.0,2.7,29,0.00,,,0.00,VWS V14.01,2013-06-26 20:20:00,
2013-06-26 16:21:00,93.1,58.0,29.71,SSW,201,5.8,5.8,31,0.00,,,0.00,VWS V14.01,2013-06-26 20:21:00,
2013-06-26 16:22:00,92.9,57.9,29.71,SW,214,3.1,5.8,31,0.00,,,0.00,VWS V14.01,2013-06-26 20:22:00,
2013-06-26 16:23:00,92.6,57.6,29.71,South,191,5.4,5.4,31,0.00,,,0.00,VWS V14.01,2013-06-26 20:23:00,
2013-06-26 16:24:00,92.2,58.1,29.71,SE,142,2.7,6.3,32,0.00,,,0.00,VWS V14.01,2013-06-26 20:24:00,
2013-06-26 16:25:00,92.0,58.0,29.71,South,179,3.6,4.9,32,0.00,,,0.00,VWS V14.01,2013-06-26 20:25:00,
2013-06-26 16:26:00,91.9,57.8,29.71,South,180,0.0,0.0,32,0.00,,,0.00,VWS V14.01,2013-06-26 20:26:00,
2013-06-26 16:27:00,91.7,57.7,29.71,South,180,0.0,0.0,32,0.00,,,0.00,VWS V14.01,2013-06-26 20:27:00,
2013-06-26 16:28:00,91.5,57.5,29.71,SSW,194,3.1,6.3,32,0.00,,,0.00,VWS V14.01,2013-06-26 20:28:00,
2013-06-26 16:29:00,91.3,57.3,29.71,South,187,0.0,3.1,32,0.00,,,0.00,VWS V14.01,2013-06-26 20:29:00,
2013-06-26 16:30:00,91.3,57.3,29.71,South,190,0.0,4.9,32,0.00,,,0.00,VWS V14.01,2013-06-26 20:30:00,
2013-06-26 16:31:00,91.1,58.0,29.71,South,179,3.6,3.6,33,0.00,,,0.00,VWS V14.01,2013-06-26 20:31:00,
2013-06-26 16:32:00,91.1,58.0,29.71,SW,232,0.0,3.6,33,0.00,,,0.00,VWS V14.01,2013-06-26 20:32:00,
2013-06-26 16:33:00,91.0,57.9,29.71,SSW,207,0.0,0.0,33,0.00,,,0.00,VWS V14.01,2013-06-26 20:33:00,
2013-06-26 16:34:00,91.0,57.9,29.71,SSE,159,5.8,5.8,33,0.00,,,0.00,VWS V14.01,2013-06-26 20:34:00,
2013-06-26 16:35:00,90.8,57.7,29.71,South,169,3.1,5.8,33,0.00,,,0.00,VWS V14.01,2013-06-26 20:35:00,
2013-06-26 16:36:00,90.6,57.6,29.71,SSW,195,5.8,5.8,33,0.00,,,0.00,VWS V14.01,2013-06-26 20:36:00,
2013-06-26 16:37:00,90.6,57.6,29.71,SW,220,0.0,5.8,33,0.00,,,0.00,VWS V14.01,2013-06-26 20:37:00,
2013-06-26 16:38:00,90.6,57.6,29.71,SSW,202,3.6,3.6,33,0.00,,,0.00,VWS V14.01,2013-06-26 20:38:00,
2013-06-26 16:39:00,90.4,58.3,29.71,SSW,211,0.0,5.4,34,0.00,,,0.00,VWS V14.01,2013-06-26 20:39:00,
2013-06-26 16:40:00,90.4,58.3,29.71,South,187,4.9,4.9,34,0.00,,,0.00,VWS V14.01,2013-06-26 20:40:00,
2013-06-26 16:41:00,90.2,58.1,29.71,South,172,2.2,3.1,34,0.00,,,0.00,VWS V14.01,2013-06-26 20:41:00,
2013-06-26 16:42:00,90.2,58.1,29.71,South,184,4.0,4.0,34,0.00,,,0.00,VWS V14.01,2013-06-26 20:42:00,
2013-06-26 16:43:00,90.2,58.1,29.71,South,182,0.0,4.0,34,0.00,,,0.00,VWS V14.01,2013-06-26 20:43:00,
2013-06-26 16:44:00,90.1,57.9,29.71,South,182,0.0,0.0,34,0.00,,,0.00,VWS V14.01,2013-06-26 20:44:00,
2013-06-26 16:45:00,90.1,58.8,29.71,SE,143,0.0,0.0,35,0.00,,,0.00,VWS V14.01,2013-06-26 20:45:00,
2013-06-26 16:46:00,90.1,58.8,29.71,SSW,208,3.6,6.3,35,0.00,,,0.00,VWS V14.01,2013-06-26 20:46:00,
2013-06-26 16:47:00,89.9,58.6,29.71,South,176,3.6,6.3,35,0.00,,,0.00,VWS V14.01,2013-06-26 20:47:00,
2013-06-26 16:48:00,89.9,58.6,29.71,SSE,149,4.9,4.9,35,0.00,,,0.00,VWS V14.01,2013-06-26 20:48:00,
2013-06-26 16:49:00,89.9,58.6,29.71,SSW,200,2.7,4.9,35,0.00,,,0.00,VWS V14.01,2013-06-26 20:49:00,
2013-06-26 16:50:00,89.7,58.4,29.71,South,191,3.6,5.4,35,0.00,,,0.00,VWS V14.01,2013-06-26 20:50:00,
2013-06-26 16:51:00,89.7,58.4,29.71,SSW,195,3.1,4.9,35,0.00,,,0.00,VWS V14.01,2013-06-26 20:51:00,
2013-06-26 16:52:00,89.5,58.3,29.71,SSW,195,5.4,5.4,35,0.00,,,0.00,VWS V14.01,2013-06-26 20:52:00,
2013-06-26 16:53:00,89.5,58.3,29.71,South,191,4.0,5.8,35,0.00,,,0.00,VWS V14.01,2013-06-26 20:53:00,
2013-06-26 16:54:00,89.5,58.3,29.71,South,187,3.6,4.0,35,0.00,,,0.00,VWS V14.01,2013-06-26 20:54:00,
2013-06-26 16:55:00,89.3,58.1,29.71,SSW,205,4.0,4.0,35,0.00,,,0.00,VWS V14.01,2013-06-26 20:55:00,
2013-06-26 16:56:00,89.2,58.0,29.71,SSW,201,3.6,4.5,35,0.00,,,0.00,VWS V14.01,2013-06-26 20:56:00,
2013-06-26 16:57:00,89.2,58.8,29.71,SSW,199,2.7,4.5,36,0.00,,,0.00,VWS V14.01,2013-06-26 20:57:00,
2013-06-26 16:58:00,89.2,58.8,29.71,SE,145,2.7,4.0,36,0.00,,,0.00,VWS V14.01,2013-06-26 20:58:00,
2013-06-26 16:59:00,89.0,58.6,29.71,South,169,2.2,4.9,36,0.00,,,0.00,VWS V14.01,2013-06-26 20:59:00,
2013-06-26 17:00:00,89.0,58.6,29.71,South,188,2.2,6.3,36,0.00,,,0.00,VWS V14.01,2013-06-26 21:00:00,
2013-06-26 17:01:00,88.8,59.2,29.71,South,183,3.1,5.4,37,0.00,,,0.00,VWS V14.01,2013-06-26 21:01:00,
2013-06-26 17:02:00,88.8,59.2,29.71,South,170,0.0,5.4,37,0.00,,,0.00,VWS V14.01,2013-06-26 21:02:00,
2013-06-26 17:03:00,88.6,59.0,29.71,South,169,0.0,0.0,37,0.00,,,0.00,VWS V14.01,2013-06-26 21:03:00,
2013-06-26 17:04:00,88.6,59.0,29.68,South,183,5.4,5.8,37,0.00,,,0.00,VWS V14.01,2013-06-26 21:04:00,
2013-06-26 17:05:00,88.6,59.0,29.68,SSW,202,4.0,8.1,37,0.00,,,0.00,VWS V14.01,2013-06-26 21:05:00,
2013-06-26 17:06:00,88.4,58.9,29.68,South,176,5.8,5.8,37,0.00,,,0.00,VWS V14.01,2013-06-26 21:06:00,
2013-06-26 17:07:00,88.4,58.9,29.68,SSW,196,5.8,5.8,37,0.00,,,0.00,VWS V14.01,2013-06-26 21:07:00,
2013-06-26 17:08:00,88.3,59.5,29.68,South,179,3.1,5.8,38,0.00,,,0.00,VWS V14.01,2013-06-26 21:08:00,
2013-06-26 17:09:00,88.3,59.5,29.68,South,191,0.0,3.1,38,0.00,,,0.00,VWS V14.01,2013-06-26 21:09:00,
2013-06-26 17:10:00,88.3,59.5,29.68,South,188,2.2,2.2,38,0.00,,,0.00,VWS V14.01,2013-06-26 21:10:00,
2013-06-26 17:11:00,88.1,59.3,29.68,South,187,3.6,4.0,38,0.00,,,0.00,VWS V14.01,2013-06-26 21:11:00,
2013-06-26 17:12:00,88.1,59.3,29.68,SSW,192,5.4,5.4,38,0.00,,,0.00,VWS V14.01,2013-06-26 21:12:00,
2013-06-26 17:13:00,88.1,59.3,29.68,South,176,5.8,5.8,38,0.00,,,0.00,VWS V14.01,2013-06-26 21:13:00,
2013-06-26 17:14:00,88.1,59.3,29.68,South,171,4.0,5.8,38,0.00,,,0.00,VWS V14.01,2013-06-26 21:14:00,
2013-06-26 17:15:00,88.1,59.3,29.68,South,180,4.0,4.0,38,0.00,,,0.00,VWS V14.01,2013-06-26 21:15:00,
2013-06-26 17:16:00,88.1,59.3,29.68,South,191,4.0,6.3,38,0.00,,,0.00,VWS V14.01,2013-06-26 21:16:00,
2013-06-26 17:17:00,88.1,59.3,29.68,SSE,168,2.7,4.0,38,0.00,,,0.00,VWS V14.01,2013-06-26 21:17:00,
2013-06-26 17:18:00,88.1,60.0,29.68,SSE,163,2.7,5.4,39,0.00,,,0.00,VWS V14.01,2013-06-26 21:18:00,
2013-06-26 17:19:00,88.3,60.2,29.68,South,185,3.1,3.6,39,0.00,,,0.00,VWS V14.01,2013-06-26 21:19:00,
2013-06-26 17:20:00,88.3,59.5,29.68,South,182,3.6,5.8,38,0.00,,,0.00,VWS V14.01,2013-06-26 21:20:00,
2013-06-26 17:21:00,88.3,58.7,29.68,SSW,205,5.4,6.3,37,0.00,,,0.00,VWS V14.01,2013-06-26 21:21:00,
2013-06-26 17:22:00,88.4,58.9,29.68,SSE,167,3.1,5.4,37,0.00,,,0.00,VWS V14.01,2013-06-26 21:22:00,
2013-06-26 17:23:00,88.4,58.9,29.68,South,178,4.0,5.4,37,0.00,,,0.00,VWS V14.01,2013-06-26 21:23:00,
2013-06-26 17:24:00,88.4,58.9,29.68,SSE,158,2.7,4.0,37,0.00,,,0.00,VWS V14.01,2013-06-26 21:24:00,
2013-06-26 17:25:00,88.4,58.9,29.68,SW,229,0.0,2.7,37,0.00,,,0.00,VWS V14.01,2013-06-26 21:25:00,
2013-06-26 17:26:00,88.4,58.9,29.68,SSW,197,2.7,3.1,37,0.00,,,0.00,VWS V14.01,2013-06-26 21:26:00,
2013-06-26 17:27:00,88.4,58.9,29.68,WSW,237,4.0,4.0,37,0.00,,,0.00,VWS V14.01,2013-06-26 21:27:00,
2013-06-26 17:28:00,88.4,58.9,29.68,SSE,150,2.2,4.0,37,0.00,,,0.00,VWS V14.01,2013-06-26 21:28:00,
2013-06-26 17:29:00,88.4,58.9,29.68,South,181,5.4,5.4,37,0.00,,,0.00,VWS V14.01,2013-06-26 21:29:00,
2013-06-26 17:30:00,88.4,58.1,29.68,South,175,6.3,6.3,36,0.00,,,0.00,VWS V14.01,2013-06-26 21:30:00,
2013-06-26 17:31:00,88.4,58.1,29.68,SSW,198,2.2,6.3,36,0.00,,,0.00,VWS V14.01,2013-06-26 21:31:00,
2013-06-26 17:32:00,88.3,58.7,29.68,SSW,200,3.1,3.1,37,0.00,,,0.00,VWS V14.01,2013-06-26 21:32:00,
2013-06-26 17:33:00,88.3,58.7,29.68,SSW,200,0.0,3.1,37,0.00,,,0.00,VWS V14.01,2013-06-26 21:33:00,
2013-06-26 17:34:00,88.3,58.7,29.68,SSW,192,6.3,6.3,37,0.00,,,0.00,VWS V14.01,2013-06-26 21:34:00,
2013-06-26 17:35:00,88.3,58.7,29.68,South,182,3.1,8.3,37,0.00,,,0.00,VWS V14.01,2013-06-26 21:35:00,
2013-06-26 17:36:00,88.1,58.6,29.68,South,190,5.4,5.8,37,0.00,,,0.00,VWS V14.01,2013-06-26 21:36:00,
2013-06-26 17:37:00,88.1,58.6,29.68,South,191,5.4,5.4,37,0.00,,,0.00,VWS V14.01,2013-06-26 21:37:00,
2013-06-26 17:38:00,88.1,58.6,29.68,South,181,4.0,5.4,37,0.00,,,0.00,VWS V14.01,2013-06-26 21:38:00,
2013-06-26 17:39:00,87.9,58.4,29.68,SSE,157,4.0,5.4,37,0.00,,,0.00,VWS V14.01,2013-06-26 21:39:00,
2013-06-26 17:40:00,87.7,58.2,29.68,South,171,0.0,6.3,37,0.00,,,0.00,VWS V14.01,2013-06-26 21:40:00,
2013-06-26 17:41:00,87.7,58.2,29.68,SW,223,0.0,5.4,37,0.00,,,0.00,VWS V14.01,2013-06-26 21:41:00,
2013-06-26 17:42:00,87.7,58.2,29.68,South,185,0.0,0.0,37,0.00,,,0.00,VWS V14.01,2013-06-26 21:42:00,
2013-06-26 17:43:00,87.7,58.2,29.68,South,172,2.7,2.7,37,0.00,,,0.00,VWS V14.01,2013-06-26 21:43:00,
2013-06-26 17:44:00,87.7,58.2,29.68,SSW,198,0.0,3.1,37,0.00,,,0.00,VWS V14.01,2013-06-26 21:44:00,
2013-06-26 17:45:00,87.7,58.2,29.68,SSW,198,0.0,0.0,37,0.00,,,0.00,VWS V14.01,2013-06-26 21:45:00,
2013-06-26 17:46:00,87.7,58.2,29.68,SSW,198,0.0,0.0,37,0.00,,,0.00,VWS V14.01,2013-06-26 21:46:00,
2013-06-26 17:47:00,87.7,59.0,29.68,SE,135,0.0,0.0,38,0.00,,,0.00,VWS V14.01,2013-06-26 21:47:00,
2013-06-26 17:48:00,87.7,59.0,29.68,SE,138,0.0,0.0,38,0.00,,,0.00,VWS V14.01,2013-06-26 21:48:00,
2013-06-26 17:49:00,87.7,59.0,29.68,SE,138,0.0,0.0,38,0.00,,,0.00,VWS V14.01,2013-06-26 21:49:00,
2013-06-26 17:50:00,87.7,59.7,29.68,SSW,201,0.0,0.0,39,0.00,,,0.00,VWS V14.01,2013-06-26 21:50:00,
2013-06-26 17:51:00,87.9,59.2,29.68,SSW,192,0.0,0.0,38,0.00,,,0.00,VWS V14.01,2013-06-26 21:51:00,
2013-06-26 17:52:00,87.7,59.0,29.68,South,180,3.6,4.9,38,0.00,,,0.00,VWS V14.01,2013-06-26 21:52:00,
2013-06-26 17:53:00,87.9,58.4,29.68,SSE,167,4.9,7.6,37,0.00,,,0.00,VWS V14.01,2013-06-26 21:53:00,
2013-06-26 17:54:00,87.9,58.4,29.68,South,172,0.0,4.9,37,0.00,,,0.00,VWS V14.01,2013-06-26 21:54:00,
2013-06-26 17:55:00,87.7,58.2,29.68,South,171,4.0,4.0,37,0.00,,,0.00,VWS V14.01,2013-06-26 21:55:00,
2013-06-26 17:56:00,87.7,58.2,29.68,SSW,201,2.7,5.4,37,0.00,,,0.00,VWS V14.01,2013-06-26 21:56:00,
2013-06-26 17:57:00,87.7,58.2,29.68,SSW,199,2.7,2.7,37,0.00,,,0.00,VWS V14.01,2013-06-26 21:57:00,
2013-06-26 17:58:00,87.7,58.2,29.68,South,190,3.1,3.1,37,0.00,,,0.00,VWS V14.01,2013-06-26 21:58:00,
2013-06-26 17:59:00,87.5,58.1,29.68,SSW,209,4.0,4.0,37,0.00,,,0.00,VWS V14.01,2013-06-26 21:59:00,
2013-06-26 18:00:00,87.5,58.1,29.68,SSW,206,0.0,4.0,37,0.00,,,0.00,VWS V14.01,2013-06-26 22:00:00,
2013-06-26 18:01:00,87.5,58.1,29.68,SSE,164,5.4,5.4,37,0.00,,,0.00,VWS V14.01,2013-06-26 22:01:00,
2013-06-26 18:02:00,87.4,57.9,29.68,SSE,163,5.8,5.8,37,0.00,,,0.00,VWS V14.01,2013-06-26 22:02:00,
2013-06-26 18:03:00,87.4,57.9,29.68,South,187,2.7,5.8,37,0.00,,,0.00,VWS V14.01,2013-06-26 22:03:00,
2013-06-26 18:04:00,87.4,57.9,29.68,SSW,199,0.0,2.7,37,0.00,,,0.00,VWS V14.01,2013-06-26 22:04:00,
2013-06-26 18:05:00,87.4,57.9,29.68,SSW,199,2.7,5.4,37,0.00,,,0.00,VWS V14.01,2013-06-26 22:05:00,
2013-06-26 18:06:00,87.4,57.9,29.68,SSW,199,4.5,4.5,37,0.00,,,0.00,VWS V14.01,2013-06-26 22:06:00,
2013-06-26 18:07:00,87.4,57.9,29.68,SSE,149,5.4,6.3,37,0.00,,,0.00,VWS V14.01,2013-06-26 22:07:00,
2013-06-26 18:08:00,87.2,57.8,29.68,SSE,166,5.4,6.3,37,0.00,,,0.00,VWS V14.01,2013-06-26 22:08:00,
2013-06-26 18:09:00,87.2,58.5,29.68,SSW,203,4.0,5.4,38,0.00,,,0.00,VWS V14.01,2013-06-26 22:09:00,
2013-06-26 18:10:00,87.2,58.5,29.68,SSE,165,4.0,4.0,38,0.00,,,0.00,VWS V14.01,2013-06-26 22:10:00,
2013-06-26 18:11:00,87.2,57.8,29.68,South,169,6.3,6.3,37,0.00,,,0.00,VWS V14.01,2013-06-26 22:11:00,
2013-06-26 18:12:00,87.2,57.8,29.68,SSE,159,0.0,0.0,37,0.00,,,0.00,VWS V14.01,2013-06-26 22:12:00,
2013-06-26 18:13:00,87.2,58.5,29.68,South,173,2.7,2.7,38,0.00,,,0.00,VWS V14.01,2013-06-26 22:13:00,
2013-06-26 18:14:00,87.0,57.6,29.68,South,183,5.4,5.4,37,0.00,,,0.00,VWS V14.01,2013-06-26 22:14:00,
2013-06-26 18:15:00,87.0,58.3,29.68,South,173,6.3,6.3,38,0.00,,,0.00,VWS V14.01,2013-06-26 22:15:00,
2013-06-26 18:16:00,87.0,57.6,29.68,SSW,211,0.0,6.3,37,0.00,,,0.00,VWS V14.01,2013-06-26 22:16:00,
2013-06-26 18:17:00,87.0,58.3,29.68,SSW,194,2.2,3.6,38,0.00,,,0.00,VWS V14.01,2013-06-26 22:17:00,
2013-06-26 18:18:00,87.0,58.3,29.68,SW,227,0.0,3.6,38,0.00,,,0.00,VWS V14.01,2013-06-26 22:18:00,
2013-06-26 18:19:00,87.0,58.3,29.68,SSW,210,0.0,2.7,38,0.00,,,0.00,VWS V14.01,2013-06-26 22:19:00,
2013-06-26 18:20:00,86.8,58.2,29.68,SSW,210,0.0,0.0,38,0.00,,,0.00,VWS V14.01,2013-06-26 22:20:00,
2013-06-26 18:21:00,86.8,58.9,29.68,South,176,0.0,0.0,39,0.00,,,0.00,VWS V14.01,2013-06-26 22:21:00,
2013-06-26 18:22:00,86.8,58.9,29.68,SSE,160,2.2,4.5,39,0.00,,,0.00,VWS V14.01,2013-06-26 22:22:00,
2013-06-26 18:23:00,86.8,58.9,29.68,SSW,209,8.3,8.3,39,0.00,,,0.00,VWS V14.01,2013-06-26 22:23:00,
2013-06-26 18:24:00,86.8,58.2,29.68,SW,222,3.1,8.3,38,0.00,,,0.00,VWS V14.01,2013-06-26 22:24:00,
2013-06-26 18:25:00,86.8,58.9,29.68,South,169,5.8,6.3,39,0.00,,,0.00,VWS V14.01,2013-06-26 22:25:00,
2013-06-26 18:26:00,86.6,58.0,29.68,South,186,0.0,7.2,38,0.00,,,0.00,VWS V14.01,2013-06-26 22:26:00,
2013-06-26 18:27:00,86.6,58.0,29.68,South,186,0.0,0.0,38,0.00,,,0.00,VWS V14.01,2013-06-26 22:27:00,
2013-06-26 18:28:00,86.6,58.8,29.68,South,186,0.0,0.0,39,0.00,,,0.00,VWS V14.01,2013-06-26 22:28:00,
2013-06-26 18:29:00,86.5,57.9,29.68,South,188,5.8,6.3,38,0.00,,,0.00,VWS V14.01,2013-06-26 22:29:00,
2013-06-26 18:30:00,86.5,58.6,29.68,South,175,0.0,5.8,39,0.00,,,0.00,VWS V14.01,2013-06-26 22:30:00,
2013-06-26 18:31:00,86.5,58.6,29.68,WSW,240,3.6,3.6,39,0.00,,,0.00,VWS V14.01,2013-06-26 22:31:00,
2013-06-26 18:32:00,86.5,58.6,29.68,SSE,160,2.7,4.0,39,0.00,,,0.00,VWS V14.01,2013-06-26 22:32:00,
2013-06-26 18:33:00,86.5,58.6,29.68,South,183,2.2,4.0,39,0.00,,,0.00,VWS V14.01,2013-06-26 22:33:00,
2013-06-26 18:34:00,86.3,58.4,29.68,SSE,164,4.0,5.4,39,0.00,,,0.00,VWS V14.01,2013-06-26 22:34:00,
2013-06-26 18:35:00,86.3,58.4,29.68,SSW,203,2.2,4.0,39,0.00,,,0.00,VWS V14.01,2013-06-26 22:35:00,
2013-06-26 18:36:00,86.3,58.4,29.68,SE,138,3.6,4.9,39,0.00,,,0.00,VWS V14.01,2013-06-26 22:36:00,
2013-06-26 18:37:00,86.3,58.4,29.68,South,177,5.4,5.4,39,0.00,,,0.00,VWS V14.01,2013-06-26 22:37:00,
2013-06-26 18:38:00,86.3,58.4,29.68,South,189,4.0,5.4,39,0.00,,,0.00,VWS V14.01,2013-06-26 22:38:00,
2013-06-26 18:39:00,86.3,57.7,29.68,SSW,201,0.0,4.5,38,0.00,,,0.00,VWS V14.01,2013-06-26 22:39:00,
2013-06-26 18:40:00,86.1,57.5,29.68,SSE,147,5.8,5.8,38,0.00,,,0.00,VWS V14.01,2013-06-26 22:40:00,
2013-06-26 18:41:00,86.1,57.5,29.68,SSE,161,3.1,5.8,38,0.00,,,0.00,VWS V14.01,2013-06-26 22:41:00,
2013-06-26 18:42:00,86.1,57.5,29.68,SSE,166,3.1,5.4,38,0.00,,,0.00,VWS V14.01,2013-06-26 22:42:00,
2013-06-26 18:43:00,85.9,57.4,29.68,South,191,3.1,5.4,38,0.00,,,0.00,VWS V14.01,2013-06-26 22:43:00,
2013-06-26 18:44:00,85.9,57.4,29.68,South,189,2.2,4.0,38,0.00,,,0.00,VWS V14.01,2013-06-26 22:44:00,
2013-06-26 18:45:00,85.9,57.4,29.68,South,186,0.0,2.7,38,0.00,,,0.00,VWS V14.01,2013-06-26 22:45:00,
2013-06-26 18:46:00,85.9,57.4,29.68,SSW,197,2.2,4.0,38,0.00,,,0.00,VWS V14.01,2013-06-26 22:46:00,
2013-06-26 18:47:00,85.7,57.2,29.68,SSE,157,4.0,5.8,38,0.00,,,0.00,VWS V14.01,2013-06-26 22:47:00,
2013-06-26 18:48:00,85.7,57.2,29.68,SW,219,5.4,5.8,38,0.00,,,0.00,VWS V14.01,2013-06-26 22:48:00,
2013-06-26 18:49:00,85.7,57.2,29.68,South,179,2.2,5.4,38,0.00,,,0.00,VWS V14.01,2013-06-26 22:49:00,
2013-06-26 18:50:00,85.7,58.0,29.68,SSW,197,2.2,3.6,39,0.00,,,0.00,VWS V14.01,2013-06-26 22:50:00,
2013-06-26 18:51:00,85.6,57.8,29.68,SSW,210,3.1,4.0,39,0.00,,,0.00,VWS V14.01,2013-06-26 22:51:00,
2013-06-26 18:52:00,85.6,57.8,29.68,South,177,5.8,5.8,39,0.00,,,0.00,VWS V14.01,2013-06-26 22:52:00,
2013-06-26 18:53:00,85.6,57.8,29.68,South,186,4.9,5.8,39,0.00,,,0.00,VWS V14.01,2013-06-26 22:53:00,
2013-06-26 18:54:00,85.6,57.8,29.68,South,172,0.0,4.9,39,0.00,,,0.00,VWS V14.01,2013-06-26 22:54:00,
2013-06-26 18:55:00,85.4,57.6,29.68,SSW,202,2.2,2.7,39,0.00,,,0.00,VWS V14.01,2013-06-26 22:55:00,
2013-06-26 18:56:00,85.4,58.3,29.68,SSE,156,2.7,3.1,40,0.00,,,0.00,VWS V14.01,2013-06-26 22:56:00,
2013-06-26 18:57:00,85.4,58.3,29.68,North,0,0.0,0.0,40,0.00,,,0.00,VWS V14.01,2013-06-26 22:57:00,
2013-06-26 18:58:00,85.4,58.3,29.68,North,0,0.0,0.0,40,0.00,,,0.00,VWS V14.01,2013-06-26 22:58:00,
2013-06-26 18:59:00,85.2,58.2,29.68,SSW,193,0.0,0.0,40,0.00,,,0.00,VWS V14.01,2013-06-26 22:59:00,
2013-06-26 19:00:00,85.2,58.9,29.68,SSW,197,2.7,4.0,41,0.00,,,0.00,VWS V14.01,2013-06-26 23:00:00,
2013-06-26 19:01:00,85.2,58.9,29.68,SSW,197,3.6,3.6,41,0.00,,,0.00,VWS V14.01,2013-06-26 23:01:00,
2013-06-26 19:02:00,85.2,58.9,29.68,SSW,207,0.0,4.0,41,0.00,,,0.00,VWS V14.01,2013-06-26 23:02:00,
2013-06-26 19:03:00,85.2,58.9,29.68,SSW,207,0.0,4.0,41,0.00,,,0.00,VWS V14.01,2013-06-26 23:03:00,
2013-06-26 19:04:00,85.2,59.5,29.68,South,172,0.0,4.9,42,0.00,,,0.00,VWS V14.01,2013-06-26 23:04:00,
2013-06-26 19:05:00,85.0,60.0,29.68,SSW,200,4.0,4.0,43,0.00,,,0.00,VWS V14.01,2013-06-26 23:05:00,
2013-06-26 19:06:00,85.0,60.0,29.68,SSE,147,2.7,4.0,43,0.00,,,0.00,VWS V14.01,2013-06-26 23:06:00,
2013-06-26 19:07:00,85.0,60.0,29.68,SSW,199,0.0,0.0,43,0.00,,,0.00,VWS V14.01,2013-06-26 23:07:00,
2013-06-26 19:08:00,85.0,60.0,29.68,SSW,205,0.0,0.0,43,0.00,,,0.00,VWS V14.01,2013-06-26 23:08:00,
2013-06-26 19:09:00,84.8,60.5,29.68,South,184,4.0,4.0,44,0.00,,,0.00,VWS V14.01,2013-06-26 23:09:00,
2013-06-26 19:10:00,84.8,60.5,29.68,SSW,194,0.0,4.0,44,0.00,,,0.00,VWS V14.01,2013-06-26 23:10:00,
2013-06-26 19:11:00,84.8,60.5,29.68,SE,132,4.0,4.0,44,0.00,,,0.00,VWS V14.01,2013-06-26 23:11:00,
2013-06-26 19:12:00,84.7,61.0,29.68,WSW,243,3.6,4.9,45,0.00,,,0.00,VWS V14.01,2013-06-26 23:12:00,
2013-06-26 19:13:00,84.7,61.0,29.68,WSW,243,3.6,4.9,45,0.00,,,0.00,VWS V14.01,2013-06-26 23:13:00,
2013-06-26 19:14:00,84.7,61.0,29.68,SE,146,2.2,3.6,45,0.00,,,0.00,VWS V14.01,2013-06-26 23:14:00,
2013-06-26 19:15:00,84.7,61.0,29.68,WSW,251,0.0,3.1,45,0.00,,,0.00,VWS V14.01,2013-06-26 23:15:00,
2013-06-26 19:16:00,84.7,61.0,29.68,WSW,251,0.0,0.0,45,0.00,,,0.00,VWS V14.01,2013-06-26 23:16:00,
2013-06-26 19:17:00,84.5,60.8,29.68,WSW,251,0.0,0.0,45,0.00,,,0.00,VWS V14.01,2013-06-26 23:17:00,
2013-06-26 19:18:00,84.5,61.5,29.68,SE,131,0.0,0.0,46,0.00,,,0.00,VWS V14.01,2013-06-26 23:18:00,
2013-06-26 19:19:00,84.5,61.5,29.68,South,186,2.2,3.6,46,0.00,,,0.00,VWS V14.01,2013-06-26 23:19:00,
2013-06-26 19:20:00,84.5,62.1,29.68,South,180,2.2,3.1,47,0.00,,,0.00,VWS V14.01,2013-06-26 23:20:00,
2013-06-26 19:21:00,84.3,61.9,29.68,SSW,202,2.7,4.9,47,0.00,,,0.00,VWS V14.01,2013-06-26 23:21:00,
2013-06-26 19:22:00,84.3,61.9,29.68,SSW,202,0.0,3.1,47,0.00,,,0.00,VWS V14.01,2013-06-26 23:22:00,
2013-06-26 19:23:00,84.3,62.5,29.68,SSW,195,0.0,0.0,48,0.00,,,0.00,VWS V14.01,2013-06-26 23:23:00,
2013-06-26 19:24:00,84.1,62.3,29.68,SSW,193,3.6,3.6,48,0.00,,,0.00,VWS V14.01,2013-06-26 23:24:00,
2013-06-26 19:25:00,84.1,62.9,29.68,SSW,209,3.1,5.8,49,0.00,,,0.00,VWS V14.01,2013-06-26 23:25:00,
2013-06-26 19:26:00,84.1,62.9,29.68,South,190,0.0,3.1,49,0.00,,,0.00,VWS V14.01,2013-06-26 23:26:00,
2013-06-26 19:27:00,83.9,62.8,29.68,SW,220,2.7,4.0,49,0.00,,,0.00,VWS V14.01,2013-06-26 23:27:00,
2013-06-26 19:28:00,83.9,62.8,29.68,South,184,0.0,2.7,49,0.00,,,0.00,VWS V14.01,2013-06-26 23:28:00,
2013-06-26 19:29:00,83.9,62.8,29.68,SSE,160,0.0,0.0,49,0.00,,,0.00,VWS V14.01,2013-06-26 23:29:00,
2013-06-26 19:30:00,83.8,62.6,29.68,SW,230,2.2,4.0,49,0.00,,,0.00,VWS V14.01,2013-06-26 23:30:00,
2013-06-26 19:31:00,83.8,63.2,29.68,SW,214,2.7,3.6,50,0.00,,,0.00,VWS V14.01,2013-06-26 23:31:00,
2013-06-26 19:32:00,83.8,63.2,29.68,SSW,192,0.0,3.1,50,0.00,,,0.00,VWS V14.01,2013-06-26 23:32:00,
2013-06-26 19:33:00,83.8,63.2,29.68,SSE,166,2.2,2.2,50,0.00,,,0.00,VWS V14.01,2013-06-26 23:33:00,
2013-06-26 19:34:00,83.8,63.7,29.68,SSW,195,4.0,4.9,51,0.00,,,0.00,VWS V14.01,2013-06-26 23:34:00,
2013-06-26 19:35:00,83.6,63.0,29.68,South,176,3.1,4.0,50,0.00,,,0.00,VWS V14.01,2013-06-26 23:35:00,
2013-06-26 19:36:00,83.6,63.6,29.68,WSW,243,6.3,6.3,51,0.00,,,0.00,VWS V14.01,2013-06-26 23:36:00,
2013-06-26 19:37:00,83.6,63.6,29.68,SW,234,2.7,6.3,51,0.00,,,0.00,VWS V14.01,2013-06-26 23:37:00,
2013-06-26 19:38:00,83.6,64.1,29.68,SSW,213,3.6,3.6,52,0.00,,,0.00,VWS V14.01,2013-06-26 23:38:00,
2013-06-26 19:39:00,83.4,63.4,29.68,SW,234,2.7,3.6,51,0.00,,,0.00,VWS V14.01,2013-06-26 23:39:00,
2013-06-26 19:40:00,83.4,64.0,29.68,SSE,164,8.1,8.1,52,0.00,,,0.00,VWS V14.01,2013-06-26 23:40:00,
2013-06-26 19:41:00,83.4,64.0,29.68,South,187,2.7,8.1,52,0.00,,,0.00,VWS V14.01,2013-06-26 23:41:00,
2013-06-26 19:42:00,83.4,64.0,29.68,SSE,152,3.6,3.6,52,0.00,,,0.00,VWS V14.01,2013-06-26 23:42:00,
2013-06-26 19:43:00,83.2,64.3,29.68,WSW,243,4.9,7.6,53,0.00,,,0.00,VWS V14.01,2013-06-26 23:43:00,
2013-06-26 19:44:00,83.2,64.3,29.68,South,176,3.6,6.7,53,0.00,,,0.00,VWS V14.01,2013-06-26 23:44:00,
2013-06-26 19:45:00,83.0,64.2,29.68,SSW,197,3.6,4.0,53,0.00,,,0.00,VWS V14.01,2013-06-26 23:45:00,
2013-06-26 19:46:00,83.0,64.7,29.68,SW,235,0.0,4.0,54,0.00,,,0.00,VWS V14.01,2013-06-26 23:46:00,
2013-06-26 19:47:00,83.0,64.7,29.68,South,182,7.6,7.6,54,0.00,,,0.00,VWS V14.01,2013-06-26 23:47:00,
2013-06-26 19:48:00,83.0,64.7,29.71,WSW,244,0.0,7.6,54,0.00,,,0.00,VWS V14.01,2013-06-26 23:48:00,
2013-06-26 19:49:00,82.9,64.5,29.71,SSW,203,0.0,0.0,54,0.00,,,0.00,VWS V14.01,2013-06-26 23:49:00,
2013-06-26 19:50:00,82.9,64.5,29.71,South,169,0.0,0.0,54,0.00,,,0.00,VWS V14.01,2013-06-26 23:50:00,
2013-06-26 19:51:00,82.9,64.5,29.71,South,171,3.1,3.1,54,0.00,,,0.00,VWS V14.01,2013-06-26 23:51:00,
2013-06-26 19:52:00,82.9,64.5,29.71,West,269,2.2,3.6,54,0.00,,,0.00,VWS V14.01,2013-06-26 23:52:00,
2013-06-26 19:53:00,82.9,64.5,29.71,SSW,211,2.7,3.6,54,0.00,,,0.00,VWS V14.01,2013-06-26 23:53:00,
2013-06-26 19:54:00,82.7,64.9,29.71,South,172,3.1,3.1,55,0.00,,,0.00,VWS V14.01,2013-06-26 23:54:00,
2013-06-26 19:55:00,82.7,64.4,29.71,SW,232,3.1,3.6,54,0.00,,,0.00,VWS V14.01,2013-06-26 23:55:00,
2013-06-26 19:56:00,82.7,64.4,29.71,SW,232,0.0,3.1,54,0.00,,,0.00,VWS V14.01,2013-06-26 23:56:00,
2013-06-26 19:57:00,82.7,64.4,29.71,SW,233,2.2,2.7,54,0.00,,,0.00,VWS V14.01,2013-06-26 23:57:00,
2013-06-26 19:58:00,82.7,64.4,29.71,SW,233,2.7,2.7,54,0.00,,,0.00,VWS V14.01,2013-06-26 23:58:00,
2013-06-26 19:59:00,82.7,64.9,29.71,South,170,0.0,2.7,55,0.00,,,0.00,VWS V14.01,2013-06-26 23:59:00,
2013-06-26 20:00:00,82.5,64.7,29.71,South,179,3.1,5.8,55,0.00,,,0.00,VWS V14.01,2013-06-27 00:00:00,
2013-06-26 20:01:00,82.5,64.7,29.71,SW,219,0.0,4.0,55,0.00,,,0.00,VWS V14.01,2013-06-27 00:01:00,
2013-06-26 20:02:00,82.5,64.7,29.71,South,187,2.7,6.3,55,0.00,,,0.00,VWS V14.01,2013-06-27 00:02:00,
2013-06-26 20:03:00,82.5,64.7,29.71,SSE,158,2.7,3.1,55,0.00,,,0.00,VWS V14.01,2013-06-27 00:03:00,
2013-06-26 20:04:00,82.5,64.7,29.71,SW,214,0.0,2.7,55,0.00,,,0.00,VWS V14.01,2013-06-27 00:04:00,
2013-06-26 20:05:00,82.5,64.7,29.71,South,187,0.0,0.0,55,0.00,,,0.00,VWS V14.01,2013-06-27 00:05:00,
2013-06-26 20:06:00,82.3,64.6,29.71,South,187,0.0,0.0,55,0.00,,,0.00,VWS V14.01,2013-06-27 00:06:00,
2013-06-26 20:07:00,82.3,65.1,29.71,SSE,163,0.0,0.0,56,0.00,,,0.00,VWS V14.01,2013-06-27 00:07:00,
2013-06-26 20:08:00,82.3,65.1,29.71,South,175,0.0,0.0,56,0.00,,,0.00,VWS V14.01,2013-06-27 00:08:00,
2013-06-26 20:09:00,82.3,65.1,29.71,South,173,2.2,3.6,56,0.00,,,0.00,VWS V14.01,2013-06-27 00:09:00,
2013-06-26 20:10:00,82.3,65.1,29.71,South,190,2.2,5.4,56,0.00,,,0.00,VWS V14.01,2013-06-27 00:10:00,
2013-06-26 20:11:00,82.3,65.1,29.71,SSE,157,3.1,3.6,56,0.00,,,0.00,VWS V14.01,2013-06-27 00:11:00,
2013-06-26 20:12:00,82.1,64.9,29.71,SW,234,2.7,3.1,56,0.00,,,0.00,VWS V14.01,2013-06-27 00:12:00,
2013-06-26 20:13:00,82.1,64.4,29.71,SW,214,0.0,3.1,55,0.00,,,0.00,VWS V14.01,2013-06-27 00:13:00,
2013-06-26 20:14:00,82.1,64.4,29.71,SSE,165,0.0,0.0,55,0.00,,,0.00,VWS V14.01,2013-06-27 00:14:00,
2013-06-26 20:15:00,82.1,64.4,29.71,South,190,0.0,0.0,55,0.00,,,0.00,VWS V14.01,2013-06-27 00:15:00,
2013-06-26 20:16:00,82.1,64.4,29.71,WSW,254,0.0,0.0,55,0.00,,,0.00,VWS V14.01,2013-06-27 00:16:00,
2013-06-26 20:17:00,82.1,64.9,29.71,SSE,156,0.0,2.2,56,0.00,,,0.00,VWS V14.01,2013-06-27 00:17:00,
2013-06-26 20:18:00,82.1,64.9,29.71,SSE,160,0.0,0.0,56,0.00,,,0.00,VWS V14.01,2013-06-27 00:18:00,
2013-06-26 20:19:00,82.1,64.9,29.71,SE,138,0.0,0.0,56,0.00,,,0.00,VWS V14.01,2013-06-27 00:19:00,
2013-06-26 20:20:00,82.0,64.7,29.71,WSW,249,0.0,0.0,56,0.00,,,0.00,VWS V14.01,2013-06-27 00:20:00,
2013-06-26 20:21:00,82.0,64.2,29.71,SW,236,0.0,0.0,55,0.00,,,0.00,VWS V14.01,2013-06-27 00:21:00,
2013-06-26 20:22:00,82.0,64.2,29.71,SSW,203,0.0,0.0,55,0.00,,,0.00,VWS V14.01,2013-06-27 00:22:00,
2013-06-26 20:23:00,82.0,64.2,29.71,SSW,206,0.0,0.0,55,0.00,,,0.00,VWS V14.01,2013-06-27 00:23:00,
2013-06-26 20:24:00,82.0,64.2,29.71,SSW,206,0.0,0.0,55,0.00,,,0.00,VWS V14.01,2013-06-27 00:24:00,
2013-06-26 20:25:00,82.0,64.2,29.71,SSW,206,0.0,0.0,55,0.00,,,0.00,VWS V14.01,2013-06-27 00:25:00,
2013-06-26 20:26:00,82.0,64.2,29.71,SSW,206,0.0,0.0,55,0.00,,,0.00,VWS V14.01,2013-06-27 00:26:00,
2013-06-26 20:27:00,82.0,64.7,29.71,SSW,209,0.0,0.0,56,0.00,,,0.00,VWS V14.01,2013-06-27 00:27:00,
2013-06-26 20:28:00,82.0,64.7,29.71,SSW,209,0.0,0.0,56,0.00,,,0.00,VWS V14.01,2013-06-27 00:28:00,
2013-06-26 20:29:00,82.0,64.7,29.71,SE,124,0.0,0.0,56,0.00,,,0.00,VWS V14.01,2013-06-27 00:29:00,
2013-06-26 20:30:00,82.0,64.7,29.71,SW,234,0.0,0.0,56,0.00,,,0.00,VWS V14.01,2013-06-27 00:30:00,
2013-06-26 20:31:00,82.0,64.7,29.71,SW,234,0.0,0.0,56,0.00,,,0.00,VWS V14.01,2013-06-27 00:31:00,
2013-06-26 20:32:00,82.0,64.7,29.71,SW,234,0.0,0.0,56,0.00,,,0.00,VWS V14.01,2013-06-27 00:32:00,
2013-06-26 20:33:00,82.0,64.7,29.71,SW,234,0.0,0.0,56,0.00,,,0.00,VWS V14.01,2013-06-27 00:33:00,
2013-06-26 20:34:00,82.0,64.7,29.71,SW,234,0.0,0.0,56,0.00,,,0.00,VWS V14.01,2013-06-27 00:34:00,
2013-06-26 20:35:00,81.8,64.6,29.71,WSW,243,0.0,0.0,56,0.00,,,0.00,VWS V14.01,2013-06-27 00:35:00,
2013-06-26 20:36:00,81.8,64.6,29.71,WSW,243,0.0,0.0,56,0.00,,,0.00,VWS V14.01,2013-06-27 00:36:00,
2013-06-26 20:37:00,81.8,64.6,29.71,WSW,243,0.0,0.0,56,0.00,,,0.00,VWS V14.01,2013-06-27 00:37:00,
2013-06-26 20:38:00,81.8,65.1,29.71,WSW,243,0.0,0.0,57,0.00,,,0.00,VWS V14.01,2013-06-27 00:38:00,
2013-06-26 20:39:00,81.8,65.1,29.71,WSW,243,0.0,0.0,57,0.00,,,0.00,VWS V14.01,2013-06-27 00:39:00,
2013-06-26 20:40:00,81.8,65.1,29.71,South,187,0.0,0.0,57,0.00,,,0.00,VWS V14.01,2013-06-27 00:40:00,
2013-06-26 20:41:00,81.8,65.1,29.71,SW,221,0.0,0.0,57,0.00,,,0.00,VWS V14.01,2013-06-27 00:41:00,
2013-06-26 20:42:00,81.8,64.1,29.71,South,178,0.0,0.0,55,0.00,,,0.00,VWS V14.01,2013-06-27 00:42:00,
2013-06-26 20:43:00,81.6,63.9,29.71,SSE,154,0.0,0.0,55,0.00,,,0.00,VWS V14.01,2013-06-27 00:43:00,
2013-06-26 20:44:00,81.4,61.0,29.71,SW,229,4.0,6.3,50,0.00,,,0.00,VWS V14.01,2013-06-27 00:44:00,
2013-06-26 20:45:00,81.4,61.6,29.71,South,178,0.0,4.0,51,0.00,,,0.00,VWS V14.01,2013-06-27 00:45:00,
2013-06-26 20:46:00,81.4,61.0,29.71,South,176,0.0,0.0,50,0.00,,,0.00,VWS V14.01,2013-06-27 00:46:00,
2013-06-26 20:47:00,81.2,61.4,29.71,South,175,0.0,0.0,51,0.00,,,0.00,VWS V14.01,2013-06-27 00:47:00,
2013-06-26 20:48:00,81.2,61.4,29.71,South,175,0.0,0.0,51,0.00,,,0.00,VWS V14.01,2013-06-27 00:48:00,
2013-06-26 20:49:00,81.1,61.8,29.71,South,178,0.0,0.0,52,0.00,,,0.00,VWS V14.01,2013-06-27 00:49:00,
2013-06-26 20:50:00,80.9,61.6,29.71,SW,216,0.0,3.1,52,0.00,,,0.00,VWS V14.01,2013-06-27 00:50:00,
2013-06-26 20:51:00,80.9,61.6,29.71,WSW,241,0.0,2.7,52,0.00,,,0.00,VWS V14.01,2013-06-27 00:51:00,
2013-06-26 20:52:00,80.9,62.2,29.71,WSW,241,0.0,0.0,53,0.00,,,0.00,VWS V14.01,2013-06-27 00:52:00,
2013-06-26 20:53:00,80.7,62.0,29.71,SSE,153,0.0,0.0,53,0.00,,,0.00,VWS V14.01,2013-06-27 00:53:00,
2013-06-26 20:54:00,80.5,62.4,29.71,SSE,158,0.0,0.0,54,0.00,,,0.00,VWS V14.01,2013-06-27 00:54:00,
2013-06-26 20:55:00,80.5,62.4,29.71,SSW,211,0.0,0.0,54,0.00,,,0.00,VWS V14.01,2013-06-27 00:55:00,
2013-06-26 20:56:00,80.3,62.2,29.71,SSW,211,0.0,0.0,54,0.00,,,0.00,VWS V14.01,2013-06-27 00:56:00,
2013-06-26 20:57:00,80.3,62.2,29.71,SSW,211,0.0,0.0,54,0.00,,,0.00,VWS V14.01,2013-06-27 00:57:00,
2013-06-26 20:58:00,80.2,62.5,29.71,SSE,165,0.0,0.0,55,0.00,,,0.00,VWS V14.01,2013-06-27 00:58:00,
2013-06-26 20:59:00,80.2,63.1,29.71,South,191,3.1,3.1,56,0.00,,,0.00,VWS V14.01,2013-06-27 00:59:00,
2013-06-26 21:00:00,80.0,63.4,29.71,South,187,0.0,3.1,57,0.00,,,0.00,VWS V14.01,2013-06-27 01:00:00,
2013-06-26 21:01:00,79.8,63.2,29.71,SE,125,0.0,0.0,57,0.00,,,0.00,VWS V14.01,2013-06-27 01:01:00,
2013-06-26 21:02:00,79.8,63.2,29.71,SE,125,0.0,0.0,57,0.00,,,0.00,VWS V14.01,2013-06-27 01:02:00,
2013-06-26 21:03:00,79.6,64.0,29.71,SE,125,0.0,0.0,59,0.00,,,0.00,VWS V14.01,2013-06-27 01:03:00,
2013-06-26 21:04:00,79.4,63.9,29.71,SE,130,0.0,0.0,59,0.00,,,0.00,VWS V14.01,2013-06-27 01:04:00,
2013-06-26 21:05:00,79.4,63.9,29.71,SE,130,0.0,0.0,59,0.00,,,0.00,VWS V14.01,2013-06-27 01:05:00,
2013-06-26 21:06:00,79.3,63.7,29.71,SE,130,0.0,0.0,59,0.00,,,0.00,VWS V14.01,2013-06-27 01:06:00,
2013-06-26 21:07:00,79.3,63.7,29.71,SE,130,0.0,0.0,59,0.00,,,0.00,VWS V14.01,2013-06-27 01:07:00,
2013-06-26 21:08:00,79.1,63.5,29.71,SE,130,0.0,0.0,59,0.00,,,0.00,VWS V14.01,2013-06-27 01:08:00,
2013-06-26 21:09:00,79.1,64.0,29.71,SE,130,0.0,0.0,60,0.00,,,0.00,VWS V14.01,2013-06-27 01:09:00,
2013-06-26 21:10:00,79.1,64.0,29.71,SE,130,0.0,0.0,60,0.00,,,0.00,VWS V14.01,2013-06-27 01:10:00,
2013-06-26 21:11:00,78.9,63.8,29.71,SE,130,0.0,0.0,60,0.00,,,0.00,VWS V14.01,2013-06-27 01:11:00,
2013-06-26 21:12:00,78.9,64.3,29.71,SE,130,0.0,0.0,61,0.00,,,0.00,VWS V14.01,2013-06-27 01:12:00,
2013-06-26 21:13:00,78.7,64.2,29.71,SE,130,0.0,0.0,61,0.00,,,0.00,VWS V14.01,2013-06-27 01:13:00,
2013-06-26 21:14:00,78.7,64.2,29.71,SE,130,0.0,0.0,61,0.00,,,0.00,VWS V14.01,2013-06-27 01:14:00,
2013-06-26 21:15:00,78.7,64.2,29.71,SE,130,0.0,0.0,61,0.00,,,0.00,VWS V14.01,2013-06-27 01:15:00,
2013-06-26 21:16:00,78.5,64.4,29.71,SE,130,0.0,0.0,62,0.00,,,0.00,VWS V14.01,2013-06-27 01:16:00,
2013-06-26 21:17:00,78.5,64.9,29.71,NNW,343,0.0,0.0,63,0.00,,,0.00,VWS V14.01,2013-06-27 01:17:00,
2013-06-26 21:18:00,78.4,65.2,29.71,NNW,343,0.0,0.0,64,0.00,,,0.00,VWS V14.01,2013-06-27 01:18:00,
2013-06-26 21:19:00,78.2,65.5,29.71,NNW,343,0.0,0.0,65,0.00,,,0.00,VWS V14.01,2013-06-27 01:19:00,
2013-06-26 21:20:00,78.2,65.9,29.71,NNW,343,0.0,0.0,66,0.00,,,0.00,VWS V14.01,2013-06-27 01:20:00,
2013-06-26 21:21:00,78.0,65.7,29.71,NNW,343,0.0,0.0,66,0.00,,,0.00,VWS V14.01,2013-06-27 01:21:00,
2013-06-26 21:22:00,78.0,66.2,29.71,NNW,343,0.0,0.0,67,0.00,,,0.00,VWS V14.01,2013-06-27 01:22:00,
2013-06-26 21:23:00,77.8,66.0,29.71,NNW,343,0.0,0.0,67,0.00,,,0.00,VWS V14.01,2013-06-27 01:23:00,
2013-06-26 21:24:00,77.8,66.4,29.71,NNW,343,0.0,0.0,68,0.00,,,0.00,VWS V14.01,2013-06-27 01:24:00,
2013-06-26 21:25:00,77.6,65.8,29.71,NNW,343,0.0,0.0,67,0.00,,,0.00,VWS V14.01,2013-06-27 01:25:00,
2013-06-26 21:26:00,77.6,66.2,29.71,NNW,343,0.0,0.0,68,0.00,,,0.00,VWS V14.01,2013-06-27 01:26:00,
2013-06-26 21:27:00,77.6,66.7,29.71,NNW,343,0.0,0.0,69,0.00,,,0.00,VWS V14.01,2013-06-27 01:27:00,
2013-06-26 21:28:00,77.6,66.7,29.71,NNW,343,0.0,0.0,69,0.00,,,0.00,VWS V14.01,2013-06-27 01:28:00,
2013-06-26 21:29:00,77.5,66.5,29.71,NNW,343,0.0,0.0,69,0.00,,,0.00,VWS V14.01,2013-06-27 01:29:00,
2013-06-26 21:30:00,77.5,66.5,29.71,NNW,343,0.0,0.0,69,0.00,,,0.00,VWS V14.01,2013-06-27 01:30:00,
2013-06-26 21:31:00,77.5,66.9,29.71,NNW,343,0.0,0.0,70,0.00,,,0.00,VWS V14.01,2013-06-27 01:31:00,
2013-06-26 21:32:00,77.3,66.7,29.71,NNW,343,0.0,0.0,70,0.00,,,0.00,VWS V14.01,2013-06-27 01:32:00,
2013-06-26 21:33:00,77.3,66.7,29.71,NNW,343,0.0,0.0,70,0.00,,,0.00,VWS V14.01,2013-06-27 01:33:00,
2013-06-26 21:34:00,77.3,66.7,29.71,NNW,343,0.0,0.0,70,0.00,,,0.00,VWS V14.01,2013-06-27 01:34:00,
2013-06-26 21:35:00,77.3,67.2,29.71,NNW,343,0.0,0.0,71,0.00,,,0.00,VWS V14.01,2013-06-27 01:35:00,
2013-06-26 21:36:00,77.3,67.2,29.71,NNW,343,0.0,0.0,71,0.00,,,0.00,VWS V14.01,2013-06-27 01:36:00,
2013-06-26 21:37:00,77.3,67.6,29.71,NNW,348,2.7,5.8,72,0.00,,,0.00,VWS V14.01,2013-06-27 01:37:00,
2013-06-26 21:38:00,77.3,67.6,29.71,NNW,338,3.1,5.4,72,0.00,,,0.00,VWS V14.01,2013-06-27 01:38:00,
2013-06-26 21:39:00,77.3,67.6,29.71,NNW,342,0.0,5.4,72,0.00,,,0.00,VWS V14.01,2013-06-27 01:39:00,
2013-06-26 21:40:00,77.3,67.6,29.71,NNE,33,0.0,3.6,72,0.00,,,0.00,VWS V14.01,2013-06-27 01:40:00,
2013-06-26 21:41:00,77.3,67.6,29.71,NNE,33,0.0,0.0,72,0.00,,,0.00,VWS V14.01,2013-06-27 01:41:00,
2013-06-26 21:42:00,77.3,67.6,29.71,NW,315,2.7,3.1,72,0.00,,,0.00,VWS V14.01,2013-06-27 01:42:00,
2013-06-26 21:55:00,76.2,66.9,29.74,ENE,65,0.0,0.0,73,0.00,,,0.00,VWS V14.01,2013-06-27 01:55:00,
2013-06-26 21:56:00,76.2,66.9,29.74,ENE,65,0.0,0.0,73,0.24,,,0.24,VWS V14.01,2013-06-27 01:56:00,
2013-06-26 21:57:00,76.0,67.1,29.74,ENE,65,0.0,0.0,74,0.24,,,0.24,VWS V14.01,2013-06-27 01:57:00,
2013-06-26 22:01:00,75.7,66.8,29.74,NE,38,3.1,3.1,74,0.24,,,0.24,VWS V14.01,2013-06-27 02:01:00,
2013-06-26 22:07:00,75.1,67.4,29.74,NNW,327,0.0,0.0,77,0.28,,,0.28,VWS V14.01,2013-06-27 02:07:00,
2013-06-26 22:12:00,74.9,68.0,29.74,NNW,327,0.0,0.0,79,0.35,,,0.35,VWS V14.01,2013-06-27 02:12:00,
2013-06-26 22:18:00,74.9,68.4,29.74,NNW,327,0.0,0.0,80,0.35,,,0.35,VWS V14.01,2013-06-27 02:18:00,
2013-06-26 22:23:00,74.9,68.7,29.74,NNW,327,0.0,0.0,81,0.35,,,0.35,VWS V14.01,2013-06-27 02:23:00,
2013-06-26 22:28:00,75.1,68.9,29.74,NW,312,0.0,0.0,81,0.43,,,0.43,VWS V14.01,2013-06-27 02:28:00,
2013-06-26 22:33:00,74.9,69.1,29.74,NNW,346,2.7,4.9,82,0.43,,,0.43,VWS V14.01,2013-06-27 02:33:00,
2013-06-26 22:38:00,74.8,69.3,29.74,NNW,337,0.0,2.2,83,0.43,,,0.43,VWS V14.01,2013-06-27 02:38:00,
2013-06-26 22:43:00,74.4,68.9,29.74,WNW,297,0.0,0.0,83,0.43,,,0.43,VWS V14.01,2013-06-27 02:43:00,
2013-06-26 22:48:00,74.0,68.6,29.74,NW,316,0.0,0.0,83,0.20,,,0.43,VWS V14.01,2013-06-27 02:48:00,
2013-06-26 22:53:00,74.0,68.9,29.74,East,92,0.0,0.0,84,0.20,,,0.43,VWS V14.01,2013-06-27 02:53:00,
2013-06-26 22:58:00,73.9,68.7,29.74,East,92,0.0,0.0,84,0.20,,,0.43,VWS V14.01,2013-06-27 02:58:00,
2013-06-26 23:03:00,73.7,68.9,29.74,East,92,0.0,0.0,85,0.16,,,0.43,VWS V14.01,2013-06-27 03:03:00,
2013-06-26 23:08:00,73.7,68.9,29.74,East,92,0.0,0.0,85,0.20,,,0.47,VWS V14.01,2013-06-27 03:08:00,
2013-06-26 23:13:00,73.7,68.9,29.74,East,92,0.0,0.0,85,0.12,,,0.47,VWS V14.01,2013-06-27 03:13:00,
2013-06-26 23:18:00,73.7,69.2,29.74,East,92,0.0,0.0,86,0.12,,,0.47,VWS V14.01,2013-06-27 03:18:00,
2013-06-26 23:23:00,73.7,69.2,29.74,East,92,0.0,0.0,86,0.12,,,0.47,VWS V14.01,2013-06-27 03:23:00,
2013-06-26 23:28:00,73.7,69.6,29.74,East,92,0.0,0.0,87,0.04,,,0.47,VWS V14.01,2013-06-27 03:28:00,
2013-06-26 23:33:00,73.5,69.4,29.74,East,92,0.0,0.0,87,0.04,,,0.47,VWS V14.01,2013-06-27 03:33:00,
2013-06-26 23:38:00,73.7,69.9,29.74,East,92,0.0,0.0,88,0.04,,,0.47,VWS V14.01,2013-06-27 03:38:00,
2013-06-26 23:43:00,73.7,69.9,29.74,East,92,0.0,0.0,88,0.04,,,0.47,VWS V14.01,2013-06-27 03:43:00,
2013-06-26 23:48:00,73.7,69.9,29.74,WSW,247,0.0,0.0,88,0.04,,,0.47,VWS V14.01,2013-06-27 03:48:00,
2013-06-26 23:53:00,73.5,69.7,29.74,NNW,327,0.0,0.0,88,0.04,,,0.47,VWS V14.01,2013-06-27 03:53:00,
2013-06-26 23:58:00,73.1,69.4,29.74,NNW,327,0.0,0.0,88,0.04,,,0.47,VWS V14.01,2013-06-27 03:58:00,